Time,TemperatureF,DewpointF,PressureIn,WindDirection,WindDirectionDegrees,WindSpeedMPH,WindSpeedGustMPH,Humidity,HourlyPrecipIn,Conditions,Clouds,dailyrainin,SoftwareType,DateUTC
2013-02-05 00:00:00,40.0,27.7,30.03,SW,215,2.0,0.0,61,0.00,,,0.00,WeatherTracker,2013-02-05 05:00:00,
2013-02-05 00:05:00,40.1,27.7,30.03,SW,230,2.0,0.0,61,0.00,,,0.00,WeatherTracker,2013-02-05 05:05:00,
2013-02-05 00:06:00,40.1,27.7,30.03,SSW,205,1.0,0.0,61,0.00,,,0.00,WeatherTracker,2013-02-05 05:06:00,
2013-02-05 00:10:00,40.2,27.8,30.03,SSW,207,1.0,0.0,61,0.00,,,0.00,WeatherTracker,2013-02-05 05:10:00,
2013-02-05 00:11:00,40.2,27.8,30.03,SSW,207,1.0,0.0,61,0.00,,,0.00,WeatherTracker,2013-02-05 05:11:00,
2013-02-05 00:15:00,40.1,27.7,30.03,SSW,207,0.0,0.0,61,0.00,,,0.00,WeatherTracker,2013-02-05 05:15:00,
2013-02-05 00:16:00,40.1,27.7,30.03,SSW,207,2.0,0.0,61,0.00,,,0.00,WeatherTracker,2013-02-05 05:16:00,
2013-02-05 00:17:00,40.1,27.7,30.03,SSW,207,2.0,0.0,61,0.00,,,0.00,WeatherTracker,2013-02-05 05:17:00,
2013-02-05 00:20:00,40.1,27.7,30.02,WSW,240,1.0,0.0,61,0.00,,,0.00,WeatherTracker,2013-02-05 05:20:00,
2013-02-05 00:21:00,40.1,27.7,30.02,WSW,240,2.0,0.0,61,0.00,,,0.00,WeatherTracker,2013-02-05 05:21:00,
2013-02-05 00:22:00,40.1,27.7,30.02,WSW,240,2.0,0.0,61,0.00,,,0.00,WeatherTracker,2013-02-05 05:22:00,
2013-02-05 00:26:00,40.2,27.8,30.02,SW,232,1.0,0.0,61,0.00,,,0.00,WeatherTracker,2013-02-05 05:26:00,
2013-02-05 00:27:00,40.2,27.8,30.02,SSW,211,2.0,0.0,61,0.00,,,0.00,WeatherTracker,2013-02-05 05:27:00,
2013-02-05 00:31:00,40.2,27.8,30.02,SSW,211,0.0,0.0,61,0.00,,,0.00,WeatherTracker,2013-02-05 05:31:00,
2013-02-05 00:32:00,40.2,27.8,30.02,SSW,211,2.0,0.0,61,0.00,,,0.00,WeatherTracker,2013-02-05 05:32:00,
2013-02-05 00:33:00,40.2,27.8,30.02,SSW,211,1.0,0.0,61,0.00,,,0.00,WeatherTracker,2013-02-05 05:33:00,
2013-02-05 00:34:00,40.2,27.8,30.02,SSW,211,1.0,0.0,61,0.00,,,0.00,WeatherTracker,2013-02-05 05:34:00,
2013-02-05 00:37:00,40.2,27.8,30.02,SSW,211,2.0,0.0,61,0.00,,,0.00,WeatherTracker,2013-02-05 05:37:00,
2013-02-05 00:38:00,40.2,27.8,30.02,SSW,211,3.0,0.0,61,0.00,,,0.00,WeatherTracker,2013-02-05 05:38:00,
2013-02-05 00:39:00,40.3,27.9,30.02,SSW,213,3.0,0.0,61,0.00,,,0.00,WeatherTracker,2013-02-05 05:39:00,
2013-02-05 00:42:00,40.4,28.0,30.02,SSW,213,3.0,0.0,61,0.00,,,0.00,WeatherTracker,2013-02-05 05:42:00,
2013-02-05 00:43:00,40.4,28.0,30.02,SW,216,2.0,0.0,61,0.00,,,0.00,WeatherTracker,2013-02-05 05:43:00,
2013-02-05 00:44:00,40.4,28.0,30.02,SW,215,4.0,0.0,61,0.00,,,0.00,WeatherTracker,2013-02-05 05:44:00,
2013-02-05 00:48:00,40.5,28.5,30.01,SW,217,2.0,0.0,62,0.00,,,0.00,WeatherTracker,2013-02-05 05:48:00,
2013-02-05 00:49:00,40.5,28.5,30.01,SW,217,2.0,0.0,62,0.00,,,0.00,WeatherTracker,2013-02-05 05:49:00,
2013-02-05 00:50:00,40.5,28.5,30.01,SW,217,2.0,0.0,62,0.00,,,0.00,WeatherTracker,2013-02-05 05:50:00,
2013-02-05 00:53:00,40.5,28.1,30.01,SW,217,1.0,0.0,61,0.00,,,0.00,WeatherTracker,2013-02-05 05:53:00,
2013-02-05 00:54:00,40.5,28.5,30.01,SW,217,1.0,0.0,62,0.00,,,0.00,WeatherTracker,2013-02-05 05:54:00,
2013-02-05 00:55:00,40.5,28.5,30.01,SW,217,0.0,0.0,62,0.00,,,0.00,WeatherTracker,2013-02-05 05:55:00,
2013-02-05 00:59:00,40.6,28.6,30.00,SW,217,3.0,0.0,62,0.00,,,0.00,WeatherTracker,2013-02-05 05:59:00,
2013-02-05 01:00:00,40.6,28.6,30.00,SW,217,2.0,0.0,62,0.00,,,0.00,WeatherTracker,2013-02-05 06:00:00,
2013-02-05 01:01:00,40.6,28.2,30.00,SW,223,2.0,0.0,61,0.00,,,0.00,WeatherTracker,2013-02-05 06:01:00,
2013-02-05 01:05:00,40.7,28.7,30.00,SW,227,1.0,0.0,62,0.00,,,0.00,WeatherTracker,2013-02-05 06:05:00,
2013-02-05 01:06:00,40.7,28.7,30.00,SW,227,1.0,0.0,62,0.00,,,0.00,WeatherTracker,2013-02-05 06:06:00,
2013-02-05 01:10:00,40.7,28.3,30.00,SW,227,2.0,0.0,61,0.00,,,0.00,WeatherTracker,2013-02-05 06:10:00,
2013-02-05 01:11:00,40.7,28.3,30.00,SW,227,4.0,0.0,61,0.00,,,0.00,WeatherTracker,2013-02-05 06:11:00,
2013-02-05 01:16:00,40.8,28.4,30.00,SW,224,2.0,0.0,61,0.00,,,0.00,WeatherTracker,2013-02-05 06:16:00,
2013-02-05 01:17:00,40.8,28.4,30.00,SW,224,1.0,0.0,61,0.00,,,0.00,WeatherTracker,2013-02-05 06:17:00,
2013-02-05 01:21:00,40.7,28.7,30.00,SW,223,1.0,0.0,62,0.00,,,0.00,WeatherTracker,2013-02-05 06:21:00,
2013-02-05 01:22:00,40.7,28.7,30.00,SW,223,1.0,0.0,62,0.00,,,0.00,WeatherTracker,2013-02-05 06:22:00,
2013-02-05 01:26:00,40.7,28.7,30.00,SW,217,1.0,0.0,62,0.00,,,0.00,WeatherTracker,2013-02-05 06:26:00,
2013-02-05 01:27:00,40.8,28.8,30.00,SW,217,2.0,0.0,62,0.00,,,0.00,WeatherTracker,2013-02-05 06:27:00,
2013-02-05 01:28:00,40.7,28.7,30.00,SW,217,2.0,0.0,62,0.00,,,0.00,WeatherTracker,2013-02-05 06:28:00,
2013-02-05 01:31:00,40.7,28.7,30.00,SW,217,2.0,0.0,62,0.00,,,0.00,WeatherTracker,2013-02-05 06:31:00,
2013-02-05 01:32:00,40.7,28.7,30.00,SW,217,2.0,0.0,62,0.00,,,0.00,WeatherTracker,2013-02-05 06:32:00,
2013-02-05 01:33:00,40.6,28.6,30.00,SW,217,2.0,0.0,62,0.00,,,0.00,WeatherTracker,2013-02-05 06:33:00,
2013-02-05 01:34:00,40.7,28.7,30.00,SW,218,2.0,0.0,62,0.00,,,0.00,WeatherTracker,2013-02-05 06:34:00,
2013-02-05 01:37:00,40.6,28.6,30.00,SW,219,3.0,0.0,62,0.00,,,0.00,WeatherTracker,2013-02-05 06:37:00,
2013-02-05 01:38:00,40.6,28.6,30.00,SW,219,3.0,0.0,62,0.00,,,0.00,WeatherTracker,2013-02-05 06:38:00,
2013-02-05 01:39:00,40.6,28.6,30.00,SW,219,2.0,0.0,62,0.00,,,0.00,WeatherTracker,2013-02-05 06:39:00,
2013-02-05 01:43:00,40.6,28.6,30.00,SW,226,1.0,0.0,62,0.00,,,0.00,WeatherTracker,2013-02-05 06:43:00,
2013-02-05 01:44:00,40.5,28.5,30.00,SW,220,2.0,0.0,62,0.00,,,0.00,WeatherTracker,2013-02-05 06:44:00,
2013-02-05 01:48:00,40.6,28.6,29.99,SW,220,2.0,0.0,62,0.00,,,0.00,WeatherTracker,2013-02-05 06:48:00,
2013-02-05 01:49:00,40.6,28.6,29.99,SW,220,2.0,0.0,62,0.00,,,0.00,WeatherTracker,2013-02-05 06:49:00,
2013-02-05 01:53:00,40.6,28.6,29.99,SW,219,3.0,0.0,62,0.00,,,0.00,WeatherTracker,2013-02-05 06:53:00,
2013-02-05 01:54:00,40.6,28.6,29.99,SW,219,1.0,0.0,62,0.00,,,0.00,WeatherTracker,2013-02-05 06:54:00,
2013-02-05 01:55:00,40.6,28.6,29.99,SW,219,3.0,0.0,62,0.00,,,0.00,WeatherTracker,2013-02-05 06:55:00,
2013-02-05 01:59:00,40.6,28.6,29.99,SW,219,3.0,0.0,62,0.00,,,0.00,WeatherTracker,2013-02-05 06:59:00,
2013-02-05 02:00:00,40.6,28.6,29.99,SW,219,0.0,0.0,62,0.00,,,0.00,WeatherTracker,2013-02-05 07:00:00,
2013-02-05 02:04:00,40.6,28.6,29.99,SW,219,2.0,0.0,62,0.00,,,0.00,WeatherTracker,2013-02-05 07:04:00,
2013-02-05 02:05:00,40.6,28.6,29.99,SW,219,1.0,0.0,62,0.00,,,0.00,WeatherTracker,2013-02-05 07:05:00,
2013-02-05 02:06:00,40.6,28.6,29.99,SW,219,2.0,0.0,62,0.00,,,0.00,WeatherTracker,2013-02-05 07:06:00,
2013-02-05 02:10:00,40.6,28.6,29.99,SW,219,1.0,0.0,62,0.00,,,0.00,WeatherTracker,2013-02-05 07:10:00,
2013-02-05 02:11:00,40.6,28.6,29.99,SSW,207,3.0,0.0,62,0.00,,,0.00,WeatherTracker,2013-02-05 07:11:00,
2013-02-05 02:15:00,40.6,28.6,29.98,SW,227,3.0,0.0,62,0.00,,,0.00,WeatherTracker,2013-02-05 07:15:00,
2013-02-05 02:16:00,40.6,28.6,29.98,SW,217,2.0,0.0,62,0.00,,,0.00,WeatherTracker,2013-02-05 07:16:00,
2013-02-05 02:20:00,40.5,28.5,29.98,SW,217,1.0,0.0,62,0.00,,,0.00,WeatherTracker,2013-02-05 07:20:00,
2013-02-05 02:21:00,40.5,28.5,29.98,SW,217,3.0,0.0,62,0.00,,,0.00,WeatherTracker,2013-02-05 07:21:00,
2013-02-05 02:22:00,40.5,28.5,29.98,SW,217,2.0,0.0,62,0.00,,,0.00,WeatherTracker,2013-02-05 07:22:00,
2013-02-05 02:26:00,40.6,28.6,29.98,SW,220,2.0,0.0,62,0.00,,,0.00,WeatherTracker,2013-02-05 07:26:00,
2013-02-05 02:27:00,40.6,28.6,29.98,SW,220,2.0,0.0,62,0.00,,,0.00,WeatherTracker,2013-02-05 07:27:00,
2013-02-05 02:28:00,40.6,28.6,29.98,SW,219,2.0,0.0,62,0.00,,,0.00,WeatherTracker,2013-02-05 07:28:00,
2013-02-05 02:31:00,40.6,28.6,29.98,SW,219,2.0,0.0,62,0.00,,,0.00,WeatherTracker,2013-02-05 07:31:00,
2013-02-05 02:32:00,40.6,28.6,29.98,SW,219,2.0,0.0,62,0.00,,,0.00,WeatherTracker,2013-02-05 07:32:00,
2013-02-05 02:34:00,40.6,28.6,29.98,SW,219,2.0,0.0,62,0.00,,,0.00,WeatherTracker,2013-02-05 07:34:00,
2013-02-05 02:37:00,40.6,29.8,29.98,SW,219,3.0,0.0,65,0.00,,,0.00,WeatherTracker,2013-02-05 07:37:00,
2013-02-05 02:39:00,40.6,28.6,29.97,SW,227,3.0,0.0,62,0.00,,,0.00,WeatherTracker,2013-02-05 07:39:00,
2013-02-05 02:40:00,40.6,28.6,29.97,SW,224,1.0,0.0,62,0.00,,,0.00,WeatherTracker,2013-02-05 07:40:00,
2013-02-05 02:42:00,40.7,28.7,29.97,SW,224,2.0,0.0,62,0.00,,,0.00,WeatherTracker,2013-02-05 07:42:00,
2013-02-05 02:43:00,40.6,28.6,29.97,SW,224,0.0,0.0,62,0.00,,,0.00,WeatherTracker,2013-02-05 07:43:00,
2013-02-05 02:44:00,40.6,28.6,29.98,SW,224,3.0,0.0,62,0.00,,,0.00,WeatherTracker,2013-02-05 07:44:00,
2013-02-05 02:45:00,40.5,28.5,29.98,SW,220,2.0,0.0,62,0.00,,,0.00,WeatherTracker,2013-02-05 07:45:00,
2013-02-05 02:47:00,40.6,28.6,29.98,SW,221,2.0,0.0,62,0.00,,,0.00,WeatherTracker,2013-02-05 07:47:00,
2013-02-05 02:48:00,40.6,28.6,29.98,SW,221,2.0,0.0,62,0.00,,,0.00,WeatherTracker,2013-02-05 07:48:00,
2013-02-05 02:49:00,40.6,28.6,29.98,SW,221,2.0,0.0,62,0.00,,,0.00,WeatherTracker,2013-02-05 07:49:00,
2013-02-05 02:50:00,40.6,28.6,29.97,SSW,213,0.0,0.0,62,0.00,,,0.00,WeatherTracker,2013-02-05 07:50:00,
2013-02-05 02:53:00,40.6,28.6,29.98,SSW,213,2.0,0.0,62,0.00,,,0.00,WeatherTracker,2013-02-05 07:53:00,
2013-02-05 02:54:00,40.5,28.5,29.98,SSW,213,1.0,0.0,62,0.00,,,0.00,WeatherTracker,2013-02-05 07:54:00,
2013-02-05 02:55:00,40.5,28.5,29.98,SSW,213,3.0,0.0,62,0.00,,,0.00,WeatherTracker,2013-02-05 07:55:00,
2013-02-05 02:58:00,40.5,28.5,29.98,SSW,213,1.0,0.0,62,0.00,,,0.00,WeatherTracker,2013-02-05 07:58:00,
2013-02-05 02:59:00,40.5,28.5,29.98,SSW,213,1.0,0.0,62,0.00,,,0.00,WeatherTracker,2013-02-05 07:59:00,
2013-02-05 03:00:00,40.5,28.5,29.98,SW,214,2.0,0.0,62,0.00,,,0.00,WeatherTracker,2013-02-05 08:00:00,
2013-02-05 03:04:00,40.6,28.6,29.98,SW,220,2.0,0.0,62,0.00,,,0.00,WeatherTracker,2013-02-05 08:04:00,
2013-02-05 03:06:00,40.6,28.6,29.98,SW,220,2.0,0.0,62,0.00,,,0.00,WeatherTracker,2013-02-05 08:06:00,
2013-02-05 03:09:00,40.6,28.6,29.98,SW,220,3.0,0.0,62,0.00,,,0.00,WeatherTracker,2013-02-05 08:09:00,
2013-02-05 03:10:00,40.6,28.6,29.98,SW,220,1.0,0.0,62,0.00,,,0.00,WeatherTracker,2013-02-05 08:10:00,
2013-02-05 03:11:00,40.7,28.7,29.98,SW,220,0.0,0.0,62,0.00,,,0.00,WeatherTracker,2013-02-05 08:11:00,
2013-02-05 03:15:00,40.7,28.7,29.97,SW,221,2.0,0.0,62,0.00,,,0.00,WeatherTracker,2013-02-05 08:15:00,
2013-02-05 03:17:00,40.8,28.4,29.97,SW,223,1.0,0.0,61,0.00,,,0.00,WeatherTracker,2013-02-05 08:17:00,
2013-02-05 03:20:00,40.9,28.5,29.97,SW,224,2.0,0.0,61,0.00,,,0.00,WeatherTracker,2013-02-05 08:20:00,
2013-02-05 03:21:00,40.9,28.5,29.97,SW,224,2.0,0.0,61,0.00,,,0.00,WeatherTracker,2013-02-05 08:21:00,
2013-02-05 03:23:00,40.9,28.5,29.97,SW,227,2.0,0.0,61,0.00,,,0.00,WeatherTracker,2013-02-05 08:23:00,
2013-02-05 03:25:00,41.0,28.6,29.97,SW,236,3.0,0.0,61,0.00,,,0.00,WeatherTracker,2013-02-05 08:25:00,
2013-02-05 03:26:00,41.0,28.6,29.97,SW,235,2.0,0.0,61,0.00,,,0.00,WeatherTracker,2013-02-05 08:26:00,
2013-02-05 03:29:00,41.0,28.6,29.97,SW,236,2.0,0.0,61,0.00,,,0.00,WeatherTracker,2013-02-05 08:29:00,
2013-02-05 03:30:00,41.1,28.7,29.97,WSW,257,1.0,0.0,61,0.00,,,0.00,WeatherTracker,2013-02-05 08:30:00,
2013-02-05 03:31:00,41.1,28.7,29.97,WSW,257,3.0,0.0,61,0.00,,,0.00,WeatherTracker,2013-02-05 08:31:00,
2013-02-05 03:34:00,41.1,28.7,29.97,WSW,238,0.0,0.0,61,0.00,,,0.00,WeatherTracker,2013-02-05 08:34:00,
2013-02-05 03:36:00,41.1,28.7,29.97,SW,231,3.0,0.0,61,0.00,,,0.00,WeatherTracker,2013-02-05 08:36:00,
2013-02-05 03:37:00,41.1,28.7,29.97,SW,236,2.0,0.0,61,0.00,,,0.00,WeatherTracker,2013-02-05 08:37:00,
2013-02-05 03:40:00,41.0,28.6,29.97,SW,234,3.0,0.0,61,0.00,,,0.00,WeatherTracker,2013-02-05 08:40:00,
2013-02-05 03:41:00,41.0,28.6,29.97,SW,235,2.0,0.0,61,0.00,,,0.00,WeatherTracker,2013-02-05 08:41:00,
2013-02-05 03:43:00,41.0,28.6,29.97,SW,229,3.0,0.0,61,0.00,,,0.00,WeatherTracker,2013-02-05 08:43:00,
2013-02-05 03:45:00,41.0,29.0,29.96,SW,227,2.0,0.0,62,0.00,,,0.00,WeatherTracker,2013-02-05 08:45:00,
2013-02-05 03:46:00,41.0,28.6,29.96,SW,227,1.0,0.0,61,0.00,,,0.00,WeatherTracker,2013-02-05 08:46:00,
2013-02-05 03:48:00,41.0,28.6,29.96,SW,227,2.0,0.0,61,0.00,,,0.00,WeatherTracker,2013-02-05 08:48:00,
2013-02-05 03:49:00,41.0,28.6,29.96,SW,229,3.0,0.0,61,0.00,,,0.00,WeatherTracker,2013-02-05 08:49:00,
2013-02-05 03:51:00,41.0,28.6,29.96,SW,232,4.0,0.0,61,0.00,,,0.00,WeatherTracker,2013-02-05 08:51:00,
2013-02-05 03:52:00,41.0,28.6,29.96,SW,232,2.0,0.0,61,0.00,,,0.00,WeatherTracker,2013-02-05 08:52:00,
2013-02-05 03:53:00,41.0,28.6,29.96,SW,232,1.0,0.0,61,0.00,,,0.00,WeatherTracker,2013-02-05 08:53:00,
2013-02-05 03:54:00,41.0,28.6,29.96,SW,222,3.0,0.0,61,0.00,,,0.00,WeatherTracker,2013-02-05 08:54:00,
2013-02-05 03:57:00,41.0,28.6,29.96,SW,228,3.0,0.0,61,0.00,,,0.00,WeatherTracker,2013-02-05 08:57:00,
2013-02-05 03:58:00,41.0,28.6,29.96,SW,228,2.0,0.0,61,0.00,,,0.00,WeatherTracker,2013-02-05 08:58:00,
2013-02-05 03:59:00,40.9,28.9,29.96,SW,218,4.0,0.0,62,0.00,,,0.00,WeatherTracker,2013-02-05 08:59:00,
2013-02-05 04:02:00,41.0,28.6,29.96,SW,227,3.0,0.0,61,0.00,,,0.00,WeatherTracker,2013-02-05 09:02:00,
2013-02-05 04:03:00,41.0,28.6,29.96,SW,227,1.0,0.0,61,0.00,,,0.00,WeatherTracker,2013-02-05 09:03:00,
2013-02-05 04:05:00,41.0,29.0,29.96,SW,225,4.0,0.0,62,0.00,,,0.00,WeatherTracker,2013-02-05 09:05:00,
2013-02-05 04:07:00,41.0,28.6,29.96,SW,227,3.0,0.0,61,0.00,,,0.00,WeatherTracker,2013-02-05 09:07:00,
2013-02-05 04:08:00,41.0,28.6,29.96,SW,227,3.0,0.0,61,0.00,,,0.00,WeatherTracker,2013-02-05 09:08:00,
2013-02-05 04:11:00,41.0,28.6,29.96,SW,217,4.0,0.0,61,0.00,,,0.00,WeatherTracker,2013-02-05 09:11:00,
2013-02-05 04:13:00,41.1,28.7,29.95,SW,225,3.0,0.0,61,0.00,,,0.00,WeatherTracker,2013-02-05 09:13:00,
2013-02-05 04:14:00,41.1,28.7,29.96,SW,225,4.0,0.0,61,0.00,,,0.00,WeatherTracker,2013-02-05 09:14:00,
2013-02-05 04:17:00,41.2,28.8,29.95,West,260,3.0,0.0,61,0.00,,,0.00,WeatherTracker,2013-02-05 09:17:00,
2013-02-05 04:18:00,41.1,28.7,29.96,SW,221,2.0,0.0,61,0.00,,,0.00,WeatherTracker,2013-02-05 09:18:00,
2013-02-05 04:20:00,41.2,28.8,29.96,SSW,210,4.0,0.0,61,0.00,,,0.00,WeatherTracker,2013-02-05 09:20:00,
2013-02-05 04:22:00,41.2,28.8,29.96,SW,227,4.0,0.0,61,0.00,,,0.00,WeatherTracker,2013-02-05 09:22:00,
2013-02-05 04:24:00,41.2,28.8,29.96,WSW,243,4.0,0.0,61,0.00,,,0.00,WeatherTracker,2013-02-05 09:24:00,
2013-02-05 04:25:00,41.2,28.8,29.96,SW,218,4.0,0.0,61,0.00,,,0.00,WeatherTracker,2013-02-05 09:25:00,
2013-02-05 04:28:00,41.2,28.8,29.95,SW,221,5.0,0.0,61,0.00,,,0.00,WeatherTracker,2013-02-05 09:28:00,
2013-02-05 04:29:00,41.1,28.7,29.96,SW,215,2.0,0.0,61,0.00,,,0.00,WeatherTracker,2013-02-05 09:29:00,
2013-02-05 04:30:00,41.1,28.7,29.96,SW,215,2.0,0.0,61,0.00,,,0.00,WeatherTracker,2013-02-05 09:30:00,
2013-02-05 04:31:00,41.1,28.7,29.95,SW,215,3.0,0.0,61,0.00,,,0.00,WeatherTracker,2013-02-05 09:31:00,
2013-02-05 04:33:00,41.1,28.7,29.95,SW,216,3.0,0.0,61,0.00,,,0.00,WeatherTracker,2013-02-05 09:33:00,
2013-02-05 04:36:00,41.1,28.7,29.95,SW,215,2.0,0.0,61,0.00,,,0.00,WeatherTracker,2013-02-05 09:36:00,
2013-02-05 04:38:00,41.1,28.7,29.96,SW,215,1.0,0.0,61,0.00,,,0.00,WeatherTracker,2013-02-05 09:38:00,
2013-02-05 04:41:00,41.1,29.1,29.96,SW,218,1.0,0.0,62,0.00,,,0.00,WeatherTracker,2013-02-05 09:41:00,
2013-02-05 04:42:00,41.1,29.1,29.96,SW,218,4.0,0.0,62,0.00,,,0.00,WeatherTracker,2013-02-05 09:42:00,
2013-02-05 04:44:00,41.0,29.0,29.96,SW,225,3.0,0.0,62,0.00,,,0.00,WeatherTracker,2013-02-05 09:44:00,
2013-02-05 04:47:00,41.1,29.1,29.96,WSW,252,3.0,0.0,62,0.00,,,0.00,WeatherTracker,2013-02-05 09:47:00,
2013-02-05 04:48:00,41.1,29.1,29.96,WSW,238,3.0,0.0,62,0.00,,,0.00,WeatherTracker,2013-02-05 09:48:00,
2013-02-05 04:49:00,41.1,29.1,29.96,WSW,238,2.0,0.0,62,0.00,,,0.00,WeatherTracker,2013-02-05 09:49:00,
2013-02-05 04:52:00,41.1,29.1,29.96,SW,234,2.0,0.0,62,0.00,,,0.00,WeatherTracker,2013-02-05 09:52:00,
2013-02-05 04:53:00,41.1,29.1,29.96,SW,234,1.0,0.0,62,0.00,,,0.00,WeatherTracker,2013-02-05 09:53:00,
2013-02-05 04:54:00,41.0,29.0,29.96,SW,236,3.0,0.0,62,0.00,,,0.00,WeatherTracker,2013-02-05 09:54:00,
2013-02-05 04:55:00,41.1,29.1,29.96,SW,236,3.0,0.0,62,0.00,,,0.00,WeatherTracker,2013-02-05 09:55:00,
2013-02-05 04:58:00,41.1,29.1,29.96,SW,230,2.0,0.0,62,0.00,,,0.00,WeatherTracker,2013-02-05 09:58:00,
2013-02-05 04:59:00,41.1,29.1,29.96,SW,230,2.0,0.0,62,0.00,,,0.00,WeatherTracker,2013-02-05 09:59:00,
2013-02-05 05:01:00,41.1,29.1,29.96,SW,230,1.0,0.0,62,0.00,,,0.00,WeatherTracker,2013-02-05 10:01:00,
2013-02-05 05:03:00,41.0,29.0,29.96,SW,230,1.0,0.0,62,0.00,,,0.00,WeatherTracker,2013-02-05 10:03:00,
2013-02-05 05:05:00,41.0,29.0,29.96,SW,230,1.0,0.0,62,0.00,,,0.00,WeatherTracker,2013-02-05 10:05:00,
2013-02-05 05:06:00,40.9,28.9,29.96,SW,234,1.0,0.0,62,0.00,,,0.00,WeatherTracker,2013-02-05 10:06:00,
2013-02-05 05:08:00,40.9,28.9,29.96,SW,234,1.0,0.0,62,0.00,,,0.00,WeatherTracker,2013-02-05 10:08:00,
2013-02-05 05:10:00,40.8,28.8,29.96,SW,234,1.0,0.0,62,0.00,,,0.00,WeatherTracker,2013-02-05 10:10:00,
2013-02-05 05:11:00,40.8,29.2,29.96,SW,234,3.0,0.0,63,0.00,,,0.00,WeatherTracker,2013-02-05 10:11:00,
2013-02-05 05:13:00,40.8,29.2,29.96,SW,234,2.0,0.0,63,0.00,,,0.00,WeatherTracker,2013-02-05 10:13:00,
2013-02-05 05:15:00,40.8,29.2,29.96,SW,233,3.0,0.0,63,0.00,,,0.00,WeatherTracker,2013-02-05 10:15:00,
2013-02-05 05:16:00,40.8,29.2,29.96,SW,233,3.0,0.0,63,0.00,,,0.00,WeatherTracker,2013-02-05 10:16:00,
2013-02-05 05:20:00,40.7,29.1,29.96,SW,233,3.0,0.0,63,0.00,,,0.00,WeatherTracker,2013-02-05 10:20:00,
2013-02-05 05:21:00,40.7,29.1,29.96,SSW,207,2.0,0.0,63,0.00,,,0.00,WeatherTracker,2013-02-05 10:21:00,
2013-02-05 05:22:00,40.7,29.1,29.96,SSW,207,0.0,0.0,63,0.00,,,0.00,WeatherTracker,2013-02-05 10:22:00,
2013-02-05 05:25:00,40.7,29.1,29.96,SSW,207,1.0,0.0,63,0.00,,,0.00,WeatherTracker,2013-02-05 10:25:00,
2013-02-05 05:26:00,40.7,29.1,29.96,SSW,207,0.0,0.0,63,0.00,,,0.00,WeatherTracker,2013-02-05 10:26:00,
2013-02-05 05:27:00,40.6,29.0,29.96,SSW,207,1.0,0.0,63,0.00,,,0.00,WeatherTracker,2013-02-05 10:27:00,
2013-02-05 05:28:00,40.6,29.0,29.97,SSW,207,3.0,0.0,63,0.00,,,0.00,WeatherTracker,2013-02-05 10:28:00,
2013-02-05 05:31:00,40.6,29.0,29.97,SW,236,2.0,0.0,63,0.00,,,0.00,WeatherTracker,2013-02-05 10:31:00,
2013-02-05 05:33:00,40.6,29.0,29.97,SW,236,0.0,0.0,63,0.00,,,0.00,WeatherTracker,2013-02-05 10:33:00,
2013-02-05 05:36:00,40.5,28.9,29.97,SW,236,0.0,0.0,63,0.00,,,0.00,WeatherTracker,2013-02-05 10:36:00,
2013-02-05 05:38:00,40.5,29.3,29.97,SW,236,0.0,0.0,64,0.00,,,0.00,WeatherTracker,2013-02-05 10:38:00,
2013-02-05 05:40:00,40.4,29.2,29.97,SW,236,0.0,0.0,64,0.00,,,0.00,WeatherTracker,2013-02-05 10:40:00,
2013-02-05 05:41:00,40.4,29.2,29.97,SW,236,0.0,0.0,64,0.00,,,0.00,WeatherTracker,2013-02-05 10:41:00,
2013-02-05 05:42:00,40.4,29.2,29.97,SW,236,0.0,0.0,64,0.00,,,0.00,WeatherTracker,2013-02-05 10:42:00,
2013-02-05 05:43:00,40.4,29.2,29.97,SW,236,0.0,0.0,64,0.00,,,0.00,WeatherTracker,2013-02-05 10:43:00,
2013-02-05 05:45:00,40.3,29.1,29.97,SW,236,0.0,0.0,64,0.00,,,0.00,WeatherTracker,2013-02-05 10:45:00,
2013-02-05 05:47:00,40.3,29.1,29.97,SW,236,1.0,0.0,64,0.00,,,0.00,WeatherTracker,2013-02-05 10:47:00,
2013-02-05 05:49:00,40.2,29.0,29.96,SW,236,0.0,0.0,64,0.00,,,0.00,WeatherTracker,2013-02-05 10:49:00,
2013-02-05 05:50:00,40.3,29.1,29.97,SW,236,0.0,0.0,64,0.00,,,0.00,WeatherTracker,2013-02-05 10:50:00,
2013-02-05 05:52:00,40.2,29.0,29.97,SW,236,1.0,0.0,64,0.00,,,0.00,WeatherTracker,2013-02-05 10:52:00,
2013-02-05 05:54:00,40.2,29.0,29.97,SW,236,0.0,0.0,64,0.00,,,0.00,WeatherTracker,2013-02-05 10:54:00,
2013-02-05 05:56:00,40.2,29.0,29.97,SW,236,0.0,0.0,64,0.00,,,0.00,WeatherTracker,2013-02-05 10:56:00,
2013-02-05 05:58:00,40.2,29.0,29.97,SW,236,0.0,0.0,64,0.00,,,0.00,WeatherTracker,2013-02-05 10:58:00,
2013-02-05 05:59:00,40.2,29.4,29.97,SW,236,1.0,0.0,65,0.00,,,0.00,WeatherTracker,2013-02-05 10:59:00,
2013-02-05 06:01:00,40.2,29.4,29.97,SW,236,2.0,0.0,65,0.00,,,0.00,WeatherTracker,2013-02-05 11:01:00,
2013-02-05 06:03:00,40.2,29.4,29.97,SW,236,0.0,0.0,65,0.00,,,0.00,WeatherTracker,2013-02-05 11:03:00,
2013-02-05 06:04:00,40.3,29.5,29.96,SW,236,0.0,0.0,65,0.00,,,0.00,WeatherTracker,2013-02-05 11:04:00,
2013-02-05 06:06:00,40.2,29.4,29.97,SW,236,0.0,0.0,65,0.00,,,0.00,WeatherTracker,2013-02-05 11:06:00,
2013-02-05 06:08:00,40.2,29.0,29.96,SW,236,0.0,0.0,64,0.00,,,0.00,WeatherTracker,2013-02-05 11:08:00,
2013-02-05 06:09:00,40.2,29.4,29.96,SW,236,0.0,0.0,65,0.00,,,0.00,WeatherTracker,2013-02-05 11:09:00,
2013-02-05 06:10:00,40.2,29.4,29.97,SW,236,1.0,0.0,65,0.00,,,0.00,WeatherTracker,2013-02-05 11:10:00,
2013-02-05 06:11:00,40.2,29.8,29.97,SW,236,2.0,0.0,66,0.00,,,0.00,WeatherTracker,2013-02-05 11:11:00,
2013-02-05 06:14:00,40.2,29.4,29.97,SW,236,1.0,0.0,65,0.00,,,0.00,WeatherTracker,2013-02-05 11:14:00,
2013-02-05 06:15:00,40.2,29.4,29.97,SW,236,1.0,0.0,65,0.00,,,0.00,WeatherTracker,2013-02-05 11:15:00,
2013-02-05 06:17:00,40.2,29.4,29.97,SW,236,1.0,0.0,65,0.00,,,0.00,WeatherTracker,2013-02-05 11:17:00,
2013-02-05 06:19:00,40.1,29.3,29.97,SW,236,3.0,0.0,65,0.00,,,0.00,WeatherTracker,2013-02-05 11:19:00,
2013-02-05 06:20:00,40.1,29.3,29.97,SW,236,2.0,0.0,65,0.00,,,0.00,WeatherTracker,2013-02-05 11:20:00,
2013-02-05 06:22:00,40.2,29.4,29.98,SW,236,2.0,0.0,65,0.00,,,0.00,WeatherTracker,2013-02-05 11:22:00,
2013-02-05 06:24:00,40.2,29.4,29.98,WSW,241,2.0,0.0,65,0.00,,,0.00,WeatherTracker,2013-02-05 11:24:00,
2013-02-05 06:25:00,40.2,29.4,29.98,WSW,241,2.0,0.0,65,0.00,,,0.00,WeatherTracker,2013-02-05 11:25:00,
2013-02-05 06:26:00,40.2,29.4,29.97,WSW,241,1.0,0.0,65,0.00,,,0.00,WeatherTracker,2013-02-05 11:26:00,
2013-02-05 06:28:00,40.2,29.4,29.97,WSW,240,1.0,0.0,65,0.00,,,0.00,WeatherTracker,2013-02-05 11:28:00,
2013-02-05 06:30:00,40.2,29.4,29.97,WSW,240,1.0,0.0,65,0.00,,,0.00,WeatherTracker,2013-02-05 11:30:00,
2013-02-05 06:32:00,40.2,29.8,29.97,WSW,240,0.0,0.0,66,0.00,,,0.00,WeatherTracker,2013-02-05 11:32:00,
2013-02-05 06:34:00,40.2,29.4,29.97,WSW,240,1.0,0.0,65,0.00,,,0.00,WeatherTracker,2013-02-05 11:34:00,
2013-02-05 06:35:00,40.2,29.4,29.97,WSW,240,1.0,0.0,65,0.00,,,0.00,WeatherTracker,2013-02-05 11:35:00,
2013-02-05 06:36:00,40.2,29.4,29.97,WSW,240,2.0,0.0,65,0.00,,,0.00,WeatherTracker,2013-02-05 11:36:00,
2013-02-05 06:37:00,40.2,29.4,29.97,WSW,240,1.0,0.0,65,0.00,,,0.00,WeatherTracker,2013-02-05 11:37:00,
2013-02-05 06:40:00,40.2,29.4,29.97,WSW,240,0.0,0.0,65,0.00,,,0.00,WeatherTracker,2013-02-05 11:40:00,
2013-02-05 06:42:00,40.2,29.4,29.97,WSW,240,1.0,0.0,65,0.00,,,0.00,WeatherTracker,2013-02-05 11:42:00,
2013-02-05 06:44:00,40.2,29.8,29.97,WSW,240,1.0,0.0,66,0.00,,,0.00,WeatherTracker,2013-02-05 11:44:00,
2013-02-05 06:45:00,40.2,30.1,29.97,WSW,240,0.0,0.0,67,0.00,,,0.00,WeatherTracker,2013-02-05 11:45:00,
2013-02-05 06:46:00,40.2,29.8,29.97,WSW,240,2.0,0.0,66,0.00,,,0.00,WeatherTracker,2013-02-05 11:46:00,
2013-02-05 06:48:00,40.2,29.8,29.97,SW,227,2.0,0.0,66,0.00,,,0.00,WeatherTracker,2013-02-05 11:48:00,
2013-02-05 06:49:00,40.2,29.8,29.98,WSW,238,2.0,0.0,66,0.00,,,0.00,WeatherTracker,2013-02-05 11:49:00,
2013-02-05 06:51:00,40.2,29.8,29.97,SW,223,3.0,0.0,66,0.00,,,0.00,WeatherTracker,2013-02-05 11:51:00,
2013-02-05 06:54:00,40.2,29.4,29.97,SW,223,3.0,0.0,65,0.00,,,0.00,WeatherTracker,2013-02-05 11:54:00,
2013-02-05 06:56:00,40.1,29.7,29.97,SW,223,1.0,0.0,66,0.00,,,0.00,WeatherTracker,2013-02-05 11:56:00,
2013-02-05 06:59:00,40.1,29.7,29.98,SW,223,0.0,0.0,66,0.00,,,0.00,WeatherTracker,2013-02-05 11:59:00,
2013-02-05 07:02:00,40.0,29.6,29.97,SW,223,2.0,0.0,66,0.00,,,0.00,WeatherTracker,2013-02-05 12:02:00,
2013-02-05 07:04:00,40.0,29.6,29.98,SW,223,0.0,0.0,66,0.00,,,0.00,WeatherTracker,2013-02-05 12:04:00,
2013-02-05 07:06:00,40.0,29.6,29.97,SW,223,2.0,0.0,66,0.00,,,0.00,WeatherTracker,2013-02-05 12:06:00,
2013-02-05 07:07:00,40.0,29.6,29.97,SW,223,0.0,0.0,66,0.00,,,0.00,WeatherTracker,2013-02-05 12:07:00,
2013-02-05 07:09:00,40.0,29.6,29.98,SW,223,2.0,0.0,66,0.00,,,0.00,WeatherTracker,2013-02-05 12:09:00,
2013-02-05 07:11:00,40.0,29.6,29.98,SW,225,1.0,0.0,66,0.00,,,0.00,WeatherTracker,2013-02-05 12:11:00,
2013-02-05 07:12:00,40.0,29.6,29.98,SW,229,3.0,0.0,66,0.00,,,0.00,WeatherTracker,2013-02-05 12:12:00,
2013-02-05 07:13:00,40.0,29.6,29.98,WSW,239,1.0,0.0,66,0.00,,,0.00,WeatherTracker,2013-02-05 12:13:00,
2013-02-05 07:14:00,40.0,29.6,29.98,WSW,239,1.0,0.0,66,0.00,,,0.00,WeatherTracker,2013-02-05 12:14:00,
2013-02-05 07:16:00,40.0,29.9,29.98,SW,225,4.0,0.0,67,0.00,,,0.00,WeatherTracker,2013-02-05 12:16:00,
2013-02-05 07:17:00,40.0,29.6,29.98,SW,225,2.0,0.0,66,0.00,,,0.00,WeatherTracker,2013-02-05 12:17:00,
2013-02-05 07:19:00,40.0,29.6,29.98,SW,225,1.0,0.0,66,0.00,,,0.00,WeatherTracker,2013-02-05 12:19:00,
2013-02-05 07:20:00,40.0,29.6,29.98,SW,225,2.0,0.0,66,0.00,,,0.00,WeatherTracker,2013-02-05 12:20:00,
2013-02-05 07:23:00,40.0,29.6,29.98,SW,225,0.0,0.0,66,0.00,,,0.00,WeatherTracker,2013-02-05 12:23:00,
2013-02-05 07:24:00,39.9,29.8,29.98,SW,225,0.0,0.0,67,0.00,,,0.00,WeatherTracker,2013-02-05 12:24:00,
2013-02-05 07:26:00,39.9,29.8,29.98,SW,225,2.0,0.0,67,0.00,,,0.00,WeatherTracker,2013-02-05 12:26:00,
2013-02-05 07:28:00,39.9,29.8,29.98,SW,225,2.0,0.0,67,0.00,,,0.00,WeatherTracker,2013-02-05 12:28:00,
2013-02-05 07:29:00,39.9,29.8,29.98,WSW,240,2.0,0.0,67,0.00,,,0.00,WeatherTracker,2013-02-05 12:29:00,
2013-02-05 07:30:00,39.9,29.8,29.98,WSW,240,2.0,0.0,67,0.00,,,0.00,WeatherTracker,2013-02-05 12:30:00,
2013-02-05 07:31:00,39.9,29.8,29.98,WSW,240,1.0,0.0,67,0.00,,,0.00,WeatherTracker,2013-02-05 12:31:00,
2013-02-05 07:33:00,39.8,29.8,29.99,WSW,240,2.0,0.0,67,0.00,,,0.00,WeatherTracker,2013-02-05 12:33:00,
2013-02-05 07:34:00,39.8,29.8,29.99,WSW,240,3.0,0.0,67,0.00,,,0.00,WeatherTracker,2013-02-05 12:34:00,
2013-02-05 07:36:00,39.8,29.8,29.99,WSW,241,2.0,0.0,67,0.00,,,0.00,WeatherTracker,2013-02-05 12:36:00,
2013-02-05 07:39:00,39.9,29.8,29.99,SW,236,1.0,0.0,67,0.00,,,0.00,WeatherTracker,2013-02-05 12:39:00,
2013-02-05 07:41:00,39.9,29.8,29.99,SW,229,3.0,0.0,67,0.00,,,0.00,WeatherTracker,2013-02-05 12:41:00,
2013-02-05 07:42:00,39.8,29.8,29.98,WSW,256,2.0,0.0,67,0.00,,,0.00,WeatherTracker,2013-02-05 12:42:00,
2013-02-05 07:44:00,39.9,29.8,29.98,SW,225,2.0,0.0,67,0.00,,,0.00,WeatherTracker,2013-02-05 12:44:00,
2013-02-05 07:46:00,39.9,29.8,29.98,SW,225,2.0,0.0,67,0.00,,,0.00,WeatherTracker,2013-02-05 12:46:00,
2013-02-05 07:47:00,39.9,29.8,29.98,SW,225,1.0,0.0,67,0.00,,,0.00,WeatherTracker,2013-02-05 12:47:00,
2013-02-05 07:49:00,39.9,29.8,29.98,SW,225,1.0,0.0,67,0.00,,,0.00,WeatherTracker,2013-02-05 12:49:00,
2013-02-05 07:51:00,40.0,29.9,29.98,SW,225,0.0,0.0,67,0.00,,,0.00,WeatherTracker,2013-02-05 12:51:00,
2013-02-05 07:52:00,40.0,29.9,29.98,SW,225,1.0,0.0,67,0.00,,,0.00,WeatherTracker,2013-02-05 12:52:00,
2013-02-05 07:54:00,40.0,29.9,29.99,West,259,2.0,0.0,67,0.00,,,0.00,WeatherTracker,2013-02-05 12:54:00,
2013-02-05 07:57:00,40.0,29.9,29.98,WSW,245,2.0,0.0,67,0.00,,,0.00,WeatherTracker,2013-02-05 12:57:00,
2013-02-05 07:59:00,40.1,30.0,29.99,WSW,245,2.0,0.0,67,0.00,,,0.00,WeatherTracker,2013-02-05 12:59:00,
2013-02-05 08:00:00,40.1,30.0,29.99,WSW,245,2.0,0.0,67,0.00,,,0.00,WeatherTracker,2013-02-05 13:00:00,
2013-02-05 08:02:00,40.2,29.8,29.99,WSW,245,2.0,0.0,66,0.00,,,0.00,WeatherTracker,2013-02-05 13:02:00,
2013-02-05 08:03:00,40.2,30.1,29.99,WSW,245,4.0,0.0,67,0.00,,,0.00,WeatherTracker,2013-02-05 13:03:00,
2013-02-05 08:04:00,40.2,29.8,29.99,WSW,246,2.0,0.0,66,0.00,,,0.00,WeatherTracker,2013-02-05 13:04:00,
2013-02-05 08:05:00,40.2,29.8,29.99,WSW,246,3.0,0.0,66,0.00,,,0.00,WeatherTracker,2013-02-05 13:05:00,
2013-02-05 08:08:00,40.3,29.9,29.99,SW,236,2.0,0.0,66,0.00,,,0.00,WeatherTracker,2013-02-05 13:08:00,
2013-02-05 08:10:00,40.4,30.0,30.00,SW,232,3.0,0.0,66,0.00,,,0.00,WeatherTracker,2013-02-05 13:10:00,
2013-02-05 08:11:00,40.4,30.0,30.00,WSW,242,4.0,0.0,66,0.00,,,0.00,WeatherTracker,2013-02-05 13:11:00,
2013-02-05 08:13:00,40.5,30.0,30.00,WSW,239,4.0,0.0,66,0.00,,,0.00,WeatherTracker,2013-02-05 13:13:00,
2013-02-05 08:16:00,40.5,30.0,29.99,SW,219,4.0,0.0,66,0.00,,,0.00,WeatherTracker,2013-02-05 13:16:00,
2013-02-05 08:18:00,40.6,30.1,29.99,SW,217,2.0,0.0,66,0.00,,,0.00,WeatherTracker,2013-02-05 13:18:00,
2013-02-05 08:19:00,40.6,30.1,29.99,SW,230,4.0,0.0,66,0.00,,,0.00,WeatherTracker,2013-02-05 13:19:00,
2013-02-05 08:21:00,40.7,29.9,29.99,SW,223,2.0,0.0,65,0.00,,,0.00,WeatherTracker,2013-02-05 13:21:00,
2013-02-05 08:23:00,40.7,30.2,29.99,SW,232,3.0,0.0,66,0.00,,,0.00,WeatherTracker,2013-02-05 13:23:00,
2013-02-05 08:25:00,40.8,30.3,29.99,SSW,205,3.0,0.0,66,0.00,,,0.00,WeatherTracker,2013-02-05 13:25:00,
2013-02-05 08:26:00,40.9,30.4,29.99,SSW,193,0.0,0.0,66,0.00,,,0.00,WeatherTracker,2013-02-05 13:26:00,
2013-02-05 08:27:00,40.9,30.4,29.99,SSW,193,1.0,0.0,66,0.00,,,0.00,WeatherTracker,2013-02-05 13:27:00,
2013-02-05 08:28:00,40.9,30.4,29.99,SW,223,2.0,0.0,66,0.00,,,0.00,WeatherTracker,2013-02-05 13:28:00,
2013-02-05 08:30:00,41.0,30.1,29.99,SW,223,3.0,0.0,65,0.00,,,0.00,WeatherTracker,2013-02-05 13:30:00,
2013-02-05 08:32:00,41.1,30.2,29.99,SW,223,1.0,0.0,65,0.00,,,0.00,WeatherTracker,2013-02-05 13:32:00,
2013-02-05 08:34:00,41.3,30.4,29.99,West,280,3.0,0.0,65,0.00,,,0.00,WeatherTracker,2013-02-05 13:34:00,
2013-02-05 08:36:00,41.3,30.4,29.99,West,272,3.0,0.0,65,0.00,,,0.00,WeatherTracker,2013-02-05 13:36:00,
2013-02-05 08:37:00,41.3,30.4,29.99,WSW,240,4.0,0.0,65,0.00,,,0.00,WeatherTracker,2013-02-05 13:37:00,
2013-02-05 08:39:00,41.4,30.5,29.99,SW,219,2.0,0.0,65,0.00,,,0.00,WeatherTracker,2013-02-05 13:39:00,
2013-02-05 08:42:00,41.5,30.2,30.00,WSW,242,3.0,0.0,64,0.00,,,0.00,WeatherTracker,2013-02-05 13:42:00,
2013-02-05 08:43:00,41.5,30.6,30.00,West,261,3.0,0.0,65,0.00,,,0.00,WeatherTracker,2013-02-05 13:43:00,
2013-02-05 08:44:00,41.6,30.7,30.00,SW,229,2.0,0.0,65,0.00,,,0.00,WeatherTracker,2013-02-05 13:44:00,
2013-02-05 08:48:00,41.9,31.0,30.00,WSW,238,1.0,0.0,65,0.00,,,0.00,WeatherTracker,2013-02-05 13:48:00,
2013-02-05 08:49:00,42.0,30.7,30.00,SSW,206,5.0,0.0,64,0.00,,,0.00,WeatherTracker,2013-02-05 13:49:00,
2013-02-05 08:53:00,42.2,30.9,30.00,West,269,2.0,0.0,64,0.00,,,0.00,WeatherTracker,2013-02-05 13:53:00,
2013-02-05 08:54:00,42.4,31.1,30.00,West,267,2.0,0.0,64,0.00,,,0.00,WeatherTracker,2013-02-05 13:54:00,
2013-02-05 08:55:00,42.5,31.2,30.00,SW,228,3.0,0.0,64,0.00,,,0.00,WeatherTracker,2013-02-05 13:55:00,
2013-02-05 08:57:00,42.7,31.0,30.00,SW,222,4.0,0.0,63,0.00,,,0.00,WeatherTracker,2013-02-05 13:57:00,
2013-02-05 08:58:00,42.7,31.0,30.00,SW,230,4.0,0.0,63,0.00,,,0.00,WeatherTracker,2013-02-05 13:58:00,
2013-02-05 09:00:00,42.7,31.0,30.00,West,259,3.0,0.0,63,0.00,,,0.00,WeatherTracker,2013-02-05 14:00:00,
2013-02-05 09:01:00,42.7,31.0,30.00,WSW,246,3.0,0.0,63,0.00,,,0.00,WeatherTracker,2013-02-05 14:01:00,
2013-02-05 09:03:00,42.8,31.1,30.00,SW,227,2.0,0.0,63,0.00,,,0.00,WeatherTracker,2013-02-05 14:03:00,
2013-02-05 09:05:00,42.8,30.7,29.99,WSW,244,5.0,0.0,62,0.00,,,0.00,WeatherTracker,2013-02-05 14:05:00,
2013-02-05 09:07:00,42.7,30.6,29.99,West,260,5.0,0.0,62,0.00,,,0.00,WeatherTracker,2013-02-05 14:07:00,
2013-02-05 09:09:00,43.0,31.3,29.99,SSW,194,1.0,0.0,63,0.00,,,0.00,WeatherTracker,2013-02-05 14:09:00,
2013-02-05 09:11:00,43.2,31.1,29.99,SW,227,2.0,0.0,62,0.00,,,0.00,WeatherTracker,2013-02-05 14:11:00,
2013-02-05 09:12:00,43.3,31.2,29.99,SW,227,3.0,0.0,62,0.00,,,0.00,WeatherTracker,2013-02-05 14:12:00,
2013-02-05 09:14:00,43.8,31.6,29.99,South,177,3.0,0.0,62,0.00,,,0.00,WeatherTracker,2013-02-05 14:14:00,
2013-02-05 09:15:00,44.2,31.6,29.99,SSW,194,3.0,0.0,61,0.00,,,0.00,WeatherTracker,2013-02-05 14:15:00,
2013-02-05 09:16:00,44.3,31.7,29.99,West,275,1.0,0.0,61,0.00,,,0.00,WeatherTracker,2013-02-05 14:16:00,
2013-02-05 09:17:00,44.3,31.3,29.99,SW,229,5.0,0.0,60,0.00,,,0.00,WeatherTracker,2013-02-05 14:17:00,
2013-02-05 09:20:00,44.2,31.2,29.99,SSW,200,5.0,0.0,60,0.00,,,0.00,WeatherTracker,2013-02-05 14:20:00,
2013-02-05 09:21:00,44.0,31.0,29.99,SW,223,4.0,0.0,60,0.00,,,0.00,WeatherTracker,2013-02-05 14:21:00,
2013-02-05 09:22:00,43.9,30.9,29.99,SW,232,4.0,0.0,60,0.00,,,0.00,WeatherTracker,2013-02-05 14:22:00,
2013-02-05 09:25:00,43.8,30.8,30.00,WSW,239,4.0,0.0,60,0.00,,,0.00,WeatherTracker,2013-02-05 14:25:00,
2013-02-05 09:27:00,43.8,30.8,29.99,SW,215,2.0,0.0,60,0.00,,,0.00,WeatherTracker,2013-02-05 14:27:00,
2013-02-05 09:30:00,43.8,30.8,29.99,WSW,250,2.0,0.0,60,0.00,,,0.00,WeatherTracker,2013-02-05 14:30:00,
2013-02-05 09:32:00,43.8,30.8,29.99,SW,228,5.0,0.0,60,0.00,,,0.00,WeatherTracker,2013-02-05 14:32:00,
2013-02-05 09:36:00,43.9,30.9,30.00,West,281,5.0,0.0,60,0.00,,,0.00,WeatherTracker,2013-02-05 14:36:00,
2013-02-05 09:37:00,43.9,30.9,30.00,SW,228,4.0,0.0,60,0.00,,,0.00,WeatherTracker,2013-02-05 14:37:00,
2013-02-05 09:38:00,43.9,30.9,30.00,WSW,237,2.0,0.0,60,0.00,,,0.00,WeatherTracker,2013-02-05 14:38:00,
2013-02-05 09:41:00,43.9,30.9,30.00,SSW,202,2.0,0.0,60,0.00,,,0.00,WeatherTracker,2013-02-05 14:41:00,
2013-02-05 09:42:00,44.0,31.0,30.00,West,261,3.0,0.0,60,0.00,,,0.00,WeatherTracker,2013-02-05 14:42:00,
2013-02-05 09:43:00,44.0,31.0,30.00,WNW,285,4.0,0.0,60,0.00,,,0.00,WeatherTracker,2013-02-05 14:43:00,
2013-02-05 09:44:00,44.0,31.0,30.00,West,269,6.0,0.0,60,0.00,,,0.00,WeatherTracker,2013-02-05 14:44:00,
2013-02-05 09:46:00,44.0,31.0,30.00,WSW,249,3.0,0.0,60,0.00,,,0.00,WeatherTracker,2013-02-05 14:46:00,
2013-02-05 09:48:00,44.4,31.8,30.00,SW,235,2.0,0.0,61,0.00,,,0.00,WeatherTracker,2013-02-05 14:48:00,
2013-02-05 09:49:00,44.6,31.6,29.99,South,182,3.0,0.0,60,0.00,,,0.00,WeatherTracker,2013-02-05 14:49:00,
2013-02-05 09:51:00,44.9,31.9,29.99,SW,231,5.0,0.0,60,0.00,,,0.00,WeatherTracker,2013-02-05 14:51:00,
2013-02-05 09:53:00,44.8,31.4,30.00,SW,224,5.0,0.0,59,0.00,,,0.00,WeatherTracker,2013-02-05 14:53:00,
2013-02-05 09:55:00,44.6,31.2,30.00,SW,222,4.0,0.0,59,0.00,,,0.00,WeatherTracker,2013-02-05 14:55:00,
2013-02-05 09:56:00,44.6,31.6,30.00,SW,218,5.0,0.0,60,0.00,,,0.00,WeatherTracker,2013-02-05 14:56:00,
2013-02-05 09:57:00,44.6,31.2,30.00,SW,234,1.0,0.0,59,0.00,,,0.00,WeatherTracker,2013-02-05 14:57:00,
2013-02-05 09:58:00,44.7,31.7,30.00,SW,234,2.0,0.0,60,0.00,,,0.00,WeatherTracker,2013-02-05 14:58:00,
2013-02-05 10:00:00,44.8,31.8,30.00,SSW,203,3.0,0.0,60,0.00,,,0.00,WeatherTracker,2013-02-05 15:00:00,
2013-02-05 10:02:00,44.9,31.5,30.00,SSW,206,1.0,0.0,59,0.00,,,0.00,WeatherTracker,2013-02-05 15:02:00,
2013-02-05 10:03:00,45.1,32.1,30.00,WSW,250,2.0,0.0,60,0.00,,,0.00,WeatherTracker,2013-02-05 15:03:00,
2013-02-05 10:05:00,45.1,31.6,30.00,WSW,250,4.0,0.0,59,0.00,,,0.00,WeatherTracker,2013-02-05 15:05:00,
2013-02-05 10:07:00,45.2,31.7,30.00,WSW,250,4.0,0.0,59,0.00,,,0.00,WeatherTracker,2013-02-05 15:07:00,
2013-02-05 10:08:00,45.2,31.7,30.00,WSW,246,5.0,0.0,59,0.00,,,0.00,WeatherTracker,2013-02-05 15:08:00,
2013-02-05 10:11:00,45.4,31.9,30.00,SW,236,4.0,0.0,59,0.00,,,0.00,WeatherTracker,2013-02-05 15:11:00,
2013-02-05 10:12:00,45.4,31.9,30.00,WSW,246,2.0,0.0,59,0.00,,,0.00,WeatherTracker,2013-02-05 15:12:00,
2013-02-05 10:13:00,45.6,32.5,30.00,WSW,238,2.0,0.0,60,0.00,,,0.00,WeatherTracker,2013-02-05 15:13:00,
2013-02-05 10:14:00,45.7,31.8,30.00,SW,229,2.0,0.0,58,0.00,,,0.00,WeatherTracker,2013-02-05 15:14:00,
2013-02-05 10:16:00,46.0,32.1,30.00,SW,228,3.0,0.0,58,0.00,,,0.00,WeatherTracker,2013-02-05 15:16:00,
2013-02-05 10:18:00,46.3,32.3,30.00,South,190,3.0,0.0,58,0.00,,,0.00,WeatherTracker,2013-02-05 15:18:00,
2013-02-05 10:20:00,46.4,32.0,30.00,SW,227,4.0,0.0,57,0.00,,,0.00,WeatherTracker,2013-02-05 15:20:00,
2013-02-05 10:21:00,46.4,32.0,30.00,SW,222,2.0,0.0,57,0.00,,,0.00,WeatherTracker,2013-02-05 15:21:00,
2013-02-05 10:23:00,46.4,32.0,30.00,SSE,158,2.0,0.0,57,0.00,,,0.00,WeatherTracker,2013-02-05 15:23:00,
2013-02-05 10:24:00,46.4,32.0,30.00,SSW,196,2.0,0.0,57,0.00,,,0.00,WeatherTracker,2013-02-05 15:24:00,
2013-02-05 10:25:00,46.3,31.9,30.00,SSW,213,5.0,0.0,57,0.00,,,0.00,WeatherTracker,2013-02-05 15:25:00,
2013-02-05 10:27:00,46.3,31.9,30.00,SW,218,4.0,0.0,57,0.00,,,0.00,WeatherTracker,2013-02-05 15:27:00,
2013-02-05 10:28:00,46.2,31.8,29.99,SW,223,4.0,0.0,57,0.00,,,0.00,WeatherTracker,2013-02-05 15:28:00,
2013-02-05 10:29:00,46.2,31.8,29.99,WSW,250,6.0,0.0,57,0.00,,,0.00,WeatherTracker,2013-02-05 15:29:00,
2013-02-05 10:31:00,46.1,31.7,29.99,SW,234,3.0,0.0,57,0.00,,,0.00,WeatherTracker,2013-02-05 15:31:00,
2013-02-05 10:32:00,46.1,31.7,29.99,SW,234,1.0,0.0,57,0.00,,,0.00,WeatherTracker,2013-02-05 15:32:00,
2013-02-05 10:34:00,46.3,32.3,29.99,WSW,240,3.0,0.0,58,0.00,,,0.00,WeatherTracker,2013-02-05 15:34:00,
2013-02-05 10:37:00,46.4,32.0,29.99,SW,222,3.0,0.0,57,0.00,,,0.00,WeatherTracker,2013-02-05 15:37:00,
2013-02-05 10:39:00,46.4,32.0,29.99,SSW,208,1.0,0.0,57,0.00,,,0.00,WeatherTracker,2013-02-05 15:39:00,
2013-02-05 10:44:00,46.7,31.8,29.99,SW,214,2.0,0.0,56,0.00,,,0.00,WeatherTracker,2013-02-05 15:44:00,
2013-02-05 10:45:00,46.7,31.8,29.99,SSW,213,1.0,0.0,56,0.00,,,0.00,WeatherTracker,2013-02-05 15:45:00,
2013-02-05 10:49:00,46.7,32.3,29.99,SSW,211,1.0,0.0,57,0.00,,,0.00,WeatherTracker,2013-02-05 15:49:00,
2013-02-05 10:50:00,46.7,31.8,29.99,SSW,211,1.0,0.0,56,0.00,,,0.00,WeatherTracker,2013-02-05 15:50:00,
2013-02-05 10:55:00,46.9,32.0,29.99,SW,223,5.0,0.0,56,0.00,,,0.00,WeatherTracker,2013-02-05 15:55:00,
2013-02-05 10:56:00,46.8,31.9,30.00,SW,217,4.0,0.0,56,0.00,,,0.00,WeatherTracker,2013-02-05 15:56:00,
2013-02-05 11:00:00,47.3,32.8,30.00,SW,218,3.0,0.0,57,0.00,,,0.00,WeatherTracker,2013-02-05 16:00:00,
2013-02-05 11:01:00,47.6,32.7,30.00,SW,223,4.0,0.0,56,0.00,,,0.00,WeatherTracker,2013-02-05 16:01:00,
2013-02-05 11:05:00,47.8,32.4,30.00,WSW,243,0.0,0.0,55,0.00,,,0.00,WeatherTracker,2013-02-05 16:05:00,
2013-02-05 11:06:00,47.9,32.5,29.99,WSW,242,2.0,0.0,55,0.00,,,0.00,WeatherTracker,2013-02-05 16:06:00,
2013-02-05 11:07:00,48.2,32.8,29.99,SW,221,1.0,0.0,55,0.00,,,0.00,WeatherTracker,2013-02-05 16:07:00,
2013-02-05 11:11:00,47.7,32.3,29.99,SW,218,4.0,0.0,55,0.00,,,0.00,WeatherTracker,2013-02-05 16:11:00,
2013-02-05 11:12:00,47.7,32.3,29.99,SSW,213,5.0,0.0,55,0.00,,,0.00,WeatherTracker,2013-02-05 16:12:00,
2013-02-05 11:13:00,47.7,32.3,29.99,SSW,213,3.0,0.0,55,0.00,,,0.00,WeatherTracker,2013-02-05 16:13:00,
2013-02-05 11:16:00,48.0,32.6,29.99,SW,230,2.0,0.0,55,0.00,,,0.00,WeatherTracker,2013-02-05 16:16:00,
2013-02-05 11:17:00,48.1,32.7,29.99,SW,230,2.0,0.0,55,0.00,,,0.00,WeatherTracker,2013-02-05 16:17:00,
2013-02-05 11:18:00,48.4,33.0,29.99,SW,228,2.0,0.0,55,0.00,,,0.00,WeatherTracker,2013-02-05 16:18:00,
2013-02-05 11:22:00,48.7,32.8,29.99,SW,221,1.0,0.0,54,0.00,,,0.00,WeatherTracker,2013-02-05 16:22:00,
2013-02-05 11:23:00,48.7,32.3,29.99,West,277,3.0,0.0,53,0.00,,,0.00,WeatherTracker,2013-02-05 16:23:00,
2013-02-05 11:27:00,48.6,32.3,29.99,SW,221,1.0,0.0,53,0.00,,,0.00,WeatherTracker,2013-02-05 16:27:00,
2013-02-05 11:28:00,48.7,32.3,29.99,SW,218,2.0,0.0,53,0.00,,,0.00,WeatherTracker,2013-02-05 16:28:00,
2013-02-05 11:32:00,48.8,32.9,29.99,SW,219,2.0,0.0,54,0.00,,,0.00,WeatherTracker,2013-02-05 16:32:00,
2013-02-05 11:33:00,48.8,32.9,29.99,SW,220,2.0,0.0,54,0.00,,,0.00,WeatherTracker,2013-02-05 16:33:00,
2013-02-05 11:34:00,48.8,32.9,29.99,SW,218,2.0,0.0,54,0.00,,,0.00,WeatherTracker,2013-02-05 16:34:00,
2013-02-05 11:37:00,48.7,32.8,29.99,SW,223,2.0,0.0,54,0.00,,,0.00,WeatherTracker,2013-02-05 16:37:00,
2013-02-05 11:39:00,48.6,32.7,29.99,SW,223,3.0,0.0,54,0.00,,,0.00,WeatherTracker,2013-02-05 16:39:00,
2013-02-05 11:40:00,48.5,33.1,29.99,West,275,4.0,0.0,55,0.00,,,0.00,WeatherTracker,2013-02-05 16:40:00,
2013-02-05 11:42:00,48.5,34.4,29.98,SW,214,1.0,0.0,58,0.00,,,0.00,WeatherTracker,2013-02-05 16:42:00,
2013-02-05 11:44:00,48.6,33.2,29.98,SW,234,4.0,0.0,55,0.00,,,0.00,WeatherTracker,2013-02-05 16:44:00,
2013-02-05 11:46:00,48.5,32.6,29.99,WSW,244,2.0,0.0,54,0.00,,,0.00,WeatherTracker,2013-02-05 16:46:00,
2013-02-05 11:48:00,48.7,34.2,29.99,South,191,1.0,0.0,57,0.00,,,0.00,WeatherTracker,2013-02-05 16:48:00,
2013-02-05 11:49:00,48.7,33.3,29.99,SW,232,1.0,0.0,55,0.00,,,0.00,WeatherTracker,2013-02-05 16:49:00,
2013-02-05 11:50:00,49.0,33.5,29.99,SW,217,3.0,0.0,55,0.00,,,0.00,WeatherTracker,2013-02-05 16:50:00,
2013-02-05 11:51:00,49.1,33.2,29.99,SW,215,2.0,0.0,54,0.00,,,0.00,WeatherTracker,2013-02-05 16:51:00,
2013-02-05 11:53:00,49.1,32.7,29.99,SW,227,3.0,0.0,53,0.00,,,0.00,WeatherTracker,2013-02-05 16:53:00,
2013-02-05 11:54:00,49.1,32.7,29.99,SSW,208,1.0,0.0,53,0.00,,,0.00,WeatherTracker,2013-02-05 16:54:00,
2013-02-05 11:55:00,49.0,32.6,29.99,SSW,208,2.0,0.0,53,0.00,,,0.00,WeatherTracker,2013-02-05 16:55:00,
2013-02-05 11:57:00,49.0,32.6,29.98,SSW,208,1.0,0.0,53,0.00,,,0.00,WeatherTracker,2013-02-05 16:57:00,
2013-02-05 11:58:00,49.0,32.6,29.98,SSW,208,0.0,0.0,53,0.00,,,0.00,WeatherTracker,2013-02-05 16:58:00,
2013-02-05 12:00:00,49.1,32.7,29.98,SW,224,2.0,0.0,53,0.00,,,0.00,WeatherTracker,2013-02-05 17:00:00,
2013-02-05 12:01:00,49.2,33.3,29.98,SW,226,0.0,0.0,54,0.00,,,0.00,WeatherTracker,2013-02-05 17:01:00,
2013-02-05 12:02:00,49.3,33.4,29.98,SSW,208,3.0,0.0,54,0.00,,,0.00,WeatherTracker,2013-02-05 17:02:00,
2013-02-05 12:04:00,49.3,32.9,29.98,SSW,208,1.0,0.0,53,0.00,,,0.00,WeatherTracker,2013-02-05 17:04:00,
2013-02-05 12:05:00,49.4,33.0,29.98,SSW,209,1.0,0.0,53,0.00,,,0.00,WeatherTracker,2013-02-05 17:05:00,
2013-02-05 12:06:00,49.3,33.4,29.98,SSW,209,1.0,0.0,54,0.00,,,0.00,WeatherTracker,2013-02-05 17:06:00,
2013-02-05 12:08:00,49.3,32.9,29.98,South,186,1.0,0.0,53,0.00,,,0.00,WeatherTracker,2013-02-05 17:08:00,
2013-02-05 12:09:00,49.4,33.0,29.98,SW,219,1.0,0.0,53,0.00,,,0.00,WeatherTracker,2013-02-05 17:09:00,
2013-02-05 12:10:00,49.4,33.5,29.98,SW,223,4.0,0.0,54,0.00,,,0.00,WeatherTracker,2013-02-05 17:10:00,
2013-02-05 12:12:00,49.3,32.9,29.98,SSW,201,2.0,0.0,53,0.00,,,0.00,WeatherTracker,2013-02-05 17:12:00,
2013-02-05 12:13:00,49.3,32.9,29.98,SSW,201,0.0,0.0,53,0.00,,,0.00,WeatherTracker,2013-02-05 17:13:00,
2013-02-05 12:14:00,49.3,33.4,29.98,SSW,205,1.0,0.0,54,0.00,,,0.00,WeatherTracker,2013-02-05 17:14:00,
2013-02-05 12:15:00,49.5,32.6,29.97,WSW,255,1.0,0.0,52,0.00,,,0.00,WeatherTracker,2013-02-05 17:15:00,
2013-02-05 12:18:00,49.6,33.2,29.97,SW,224,2.0,0.0,53,0.00,,,0.00,WeatherTracker,2013-02-05 17:18:00,
2013-02-05 12:19:00,49.6,33.2,29.97,SW,224,4.0,0.0,53,0.00,,,0.00,WeatherTracker,2013-02-05 17:19:00,
2013-02-05 12:20:00,49.6,33.6,29.97,WSW,237,4.0,0.0,54,0.00,,,0.00,WeatherTracker,2013-02-05 17:20:00,
2013-02-05 12:23:00,49.6,34.1,29.96,SW,215,1.0,0.0,55,0.00,,,0.00,WeatherTracker,2013-02-05 17:23:00,
2013-02-05 12:24:00,49.7,33.3,29.96,SW,215,2.0,0.0,53,0.00,,,0.00,WeatherTracker,2013-02-05 17:24:00,
2013-02-05 12:25:00,49.9,33.9,29.96,SSW,202,2.0,0.0,54,0.00,,,0.00,WeatherTracker,2013-02-05 17:25:00,
2013-02-05 12:28:00,50.5,34.0,29.96,WSW,245,1.0,0.0,53,0.00,,,0.00,WeatherTracker,2013-02-05 17:28:00,
2013-02-05 12:29:00,50.5,33.1,29.96,West,267,2.0,0.0,51,0.00,,,0.00,WeatherTracker,2013-02-05 17:29:00,
2013-02-05 12:30:00,50.5,33.1,29.96,West,278,3.0,0.0,51,0.00,,,0.00,WeatherTracker,2013-02-05 17:30:00,
2013-02-05 12:31:00,50.5,33.5,29.96,SW,236,4.0,0.0,52,0.00,,,0.00,WeatherTracker,2013-02-05 17:31:00,
2013-02-05 12:33:00,50.9,33.4,29.96,SW,219,3.0,0.0,51,0.00,,,0.00,WeatherTracker,2013-02-05 17:33:00,
2013-02-05 12:34:00,50.7,32.7,29.96,WSW,239,2.0,0.0,50,0.00,,,0.00,WeatherTracker,2013-02-05 17:34:00,
2013-02-05 12:35:00,50.6,32.7,29.96,WSW,240,2.0,0.0,50,0.00,,,0.00,WeatherTracker,2013-02-05 17:35:00,
2013-02-05 12:36:00,50.6,33.1,29.96,West,265,4.0,0.0,51,0.00,,,0.00,WeatherTracker,2013-02-05 17:36:00,
2013-02-05 12:39:00,50.5,33.1,29.96,SW,220,4.0,0.0,51,0.00,,,0.00,WeatherTracker,2013-02-05 17:39:00,
2013-02-05 12:40:00,50.6,33.1,29.96,SSW,202,2.0,0.0,51,0.00,,,0.00,WeatherTracker,2013-02-05 17:40:00,
2013-02-05 12:42:00,50.9,32.9,29.96,SW,225,3.0,0.0,50,0.00,,,0.00,WeatherTracker,2013-02-05 17:42:00,
2013-02-05 12:44:00,50.9,33.4,29.96,WSW,255,2.0,0.0,51,0.00,,,0.00,WeatherTracker,2013-02-05 17:44:00,
2013-02-05 12:46:00,51.3,33.3,29.96,SW,228,1.0,0.0,50,0.00,,,0.00,WeatherTracker,2013-02-05 17:46:00,
2013-02-05 12:48:00,51.5,33.5,29.96,NW,305,5.0,0.0,50,0.00,,,0.00,WeatherTracker,2013-02-05 17:48:00,
2013-02-05 12:50:00,51.2,33.2,29.95,SSW,211,4.0,0.0,50,0.00,,,0.00,WeatherTracker,2013-02-05 17:50:00,
2013-02-05 12:51:00,51.2,33.2,29.96,SSW,210,3.0,0.0,50,0.00,,,0.00,WeatherTracker,2013-02-05 17:51:00,
2013-02-05 12:53:00,51.9,34.3,29.95,West,269,5.0,0.0,51,0.00,,,0.00,WeatherTracker,2013-02-05 17:53:00,
2013-02-05 12:56:00,52.3,33.7,29.95,SW,234,1.0,0.0,49,0.00,,,0.00,WeatherTracker,2013-02-05 17:56:00,
2013-02-05 12:58:00,52.9,34.3,29.95,West,269,6.0,0.0,49,0.00,,,0.00,WeatherTracker,2013-02-05 17:58:00,
2013-02-05 13:02:00,52.4,33.8,29.95,South,189,1.0,0.0,49,0.00,,,0.00,WeatherTracker,2013-02-05 18:02:00,
2013-02-05 13:03:00,53.2,34.5,29.95,South,184,1.0,0.0,49,0.00,,,0.00,WeatherTracker,2013-02-05 18:03:00,
2013-02-05 13:05:00,53.5,33.8,29.94,South,186,2.0,0.0,47,0.00,,,0.00,WeatherTracker,2013-02-05 18:05:00,
2013-02-05 13:07:00,53.7,34.0,29.94,South,170,2.0,0.0,47,0.00,,,0.00,WeatherTracker,2013-02-05 18:07:00,
2013-02-05 13:09:00,54.0,34.2,29.94,SSW,205,3.0,0.0,47,0.00,,,0.00,WeatherTracker,2013-02-05 18:09:00,
2013-02-05 13:10:00,53.9,34.1,29.94,South,184,3.0,0.0,47,0.00,,,0.00,WeatherTracker,2013-02-05 18:10:00,
2013-02-05 13:12:00,53.6,33.9,29.94,West,264,0.0,0.0,47,0.00,,,0.00,WeatherTracker,2013-02-05 18:12:00,
2013-02-05 13:15:00,54.1,34.3,29.94,SW,223,5.0,0.0,47,0.00,,,0.00,WeatherTracker,2013-02-05 18:15:00,
2013-02-05 13:17:00,54.0,34.2,29.94,West,281,2.0,0.0,47,0.00,,,0.00,WeatherTracker,2013-02-05 18:17:00,
2013-02-05 13:20:00,54.4,34.1,29.94,SSW,208,5.0,0.0,46,0.00,,,0.00,WeatherTracker,2013-02-05 18:20:00,
2013-02-05 13:22:00,54.3,34.0,29.93,West,279,1.0,0.0,46,0.00,,,0.00,WeatherTracker,2013-02-05 18:22:00,
2013-02-05 13:25:00,54.6,33.7,29.93,South,169,2.0,0.0,45,0.00,,,0.00,WeatherTracker,2013-02-05 18:25:00,
2013-02-05 13:26:00,54.5,33.6,29.93,SSW,200,3.0,0.0,45,0.00,,,0.00,WeatherTracker,2013-02-05 18:26:00,
2013-02-05 13:27:00,54.5,33.6,29.93,SSW,202,1.0,0.0,45,0.00,,,0.00,WeatherTracker,2013-02-05 18:27:00,
2013-02-05 13:29:00,54.9,34.0,29.93,SW,214,2.0,0.0,45,0.00,,,0.00,WeatherTracker,2013-02-05 18:29:00,
2013-02-05 13:31:00,54.4,33.5,29.93,West,262,1.0,0.0,45,0.00,,,0.00,WeatherTracker,2013-02-05 18:31:00,
2013-02-05 13:32:00,54.4,33.5,29.93,WSW,258,1.0,0.0,45,0.00,,,0.00,WeatherTracker,2013-02-05 18:32:00,
2013-02-05 13:35:00,54.8,33.9,29.93,WSW,244,3.0,0.0,45,0.00,,,0.00,WeatherTracker,2013-02-05 18:35:00,
2013-02-05 13:37:00,54.6,33.7,29.93,SW,221,5.0,0.0,45,0.00,,,0.00,WeatherTracker,2013-02-05 18:37:00,
2013-02-05 13:38:00,54.4,33.5,29.93,SSW,208,2.0,0.0,45,0.00,,,0.00,WeatherTracker,2013-02-05 18:38:00,
2013-02-05 13:40:00,54.9,34.0,29.92,West,281,2.0,0.0,45,0.00,,,0.00,WeatherTracker,2013-02-05 18:40:00,
2013-02-05 13:43:00,55.3,34.3,29.93,WSW,240,2.0,0.0,45,0.00,,,0.00,WeatherTracker,2013-02-05 18:43:00,
2013-02-05 13:45:00,55.6,34.0,29.93,SSW,212,5.0,0.0,44,0.00,,,0.00,WeatherTracker,2013-02-05 18:45:00,
2013-02-05 13:48:00,55.3,33.8,29.93,WSW,245,5.0,0.0,44,0.00,,,0.00,WeatherTracker,2013-02-05 18:48:00,
2013-02-05 13:52:00,55.1,33.6,29.92,SW,221,1.0,0.0,44,0.00,,,0.00,WeatherTracker,2013-02-05 18:52:00,
2013-02-05 13:53:00,55.7,34.7,29.92,South,179,0.0,0.0,45,0.00,,,0.00,WeatherTracker,2013-02-05 18:53:00,
2013-02-05 13:54:00,55.9,34.9,29.92,South,181,2.0,0.0,45,0.00,,,0.00,WeatherTracker,2013-02-05 18:54:00,
2013-02-05 13:57:00,55.7,33.6,29.92,SW,218,3.0,0.0,43,0.00,,,0.00,WeatherTracker,2013-02-05 18:57:00,
2013-02-05 13:59:00,55.5,33.4,29.92,SW,236,3.0,0.0,43,0.00,,,0.00,WeatherTracker,2013-02-05 18:59:00,
2013-02-05 14:02:00,55.7,34.1,29.92,WSW,244,3.0,0.0,44,0.00,,,0.00,WeatherTracker,2013-02-05 19:02:00,
2013-02-05 14:04:00,56.0,33.8,29.92,SSE,161,0.0,0.0,43,0.00,,,0.00,WeatherTracker,2013-02-05 19:04:00,
2013-02-05 14:05:00,56.0,33.8,29.92,SSE,161,0.0,0.0,43,0.00,,,0.00,WeatherTracker,2013-02-05 19:05:00,
2013-02-05 14:07:00,56.7,34.5,29.92,SSW,211,2.0,0.0,43,0.00,,,0.00,WeatherTracker,2013-02-05 19:07:00,
2013-02-05 14:09:00,56.6,33.8,29.92,WSW,258,5.0,0.0,42,0.00,,,0.00,WeatherTracker,2013-02-05 19:09:00,
2013-02-05 14:10:00,56.4,34.2,29.92,South,178,3.0,0.0,43,0.00,,,0.00,WeatherTracker,2013-02-05 19:10:00,
2013-02-05 14:13:00,56.2,34.0,29.92,SSW,202,7.0,0.0,43,0.00,,,0.00,WeatherTracker,2013-02-05 19:13:00,
2013-02-05 14:14:00,55.9,33.1,29.91,SSW,209,3.0,0.0,42,0.00,,,0.00,WeatherTracker,2013-02-05 19:14:00,
2013-02-05 14:16:00,55.9,33.7,29.92,WSW,257,1.0,0.0,43,0.00,,,0.00,WeatherTracker,2013-02-05 19:16:00,
2013-02-05 14:18:00,55.9,33.7,29.92,SW,234,5.0,0.0,43,0.00,,,0.00,WeatherTracker,2013-02-05 19:18:00,
2013-02-05 14:19:00,56.1,33.9,29.92,WSW,238,4.0,0.0,43,0.00,,,0.00,WeatherTracker,2013-02-05 19:19:00,
2013-02-05 14:21:00,56.1,33.3,29.92,WSW,256,3.0,0.0,42,0.00,,,0.00,WeatherTracker,2013-02-05 19:21:00,
2013-02-05 14:22:00,56.1,33.3,29.92,SW,232,5.0,0.0,42,0.00,,,0.00,WeatherTracker,2013-02-05 19:22:00,
2013-02-05 14:23:00,56.1,33.9,29.92,SW,234,1.0,0.0,43,0.00,,,0.00,WeatherTracker,2013-02-05 19:23:00,
2013-02-05 14:25:00,56.3,33.5,29.91,SW,219,3.0,0.0,42,0.00,,,0.00,WeatherTracker,2013-02-05 19:25:00,
2013-02-05 14:28:00,56.5,33.1,29.91,SSW,201,3.0,0.0,41,0.00,,,0.00,WeatherTracker,2013-02-05 19:28:00,
2013-02-05 14:29:00,56.5,33.1,29.91,SSW,200,1.0,0.0,41,0.00,,,0.00,WeatherTracker,2013-02-05 19:29:00,
2013-02-05 14:30:00,56.5,33.1,29.91,SSW,200,1.0,0.0,41,0.00,,,0.00,WeatherTracker,2013-02-05 19:30:00,
2013-02-05 14:33:00,56.2,33.4,29.91,SW,226,3.0,0.0,42,0.00,,,0.00,WeatherTracker,2013-02-05 19:33:00,
2013-02-05 14:34:00,56.3,33.5,29.91,South,188,6.0,0.0,42,0.00,,,0.00,WeatherTracker,2013-02-05 19:34:00,
2013-02-05 14:35:00,56.4,33.6,29.91,SW,222,6.0,0.0,42,0.00,,,0.00,WeatherTracker,2013-02-05 19:35:00,
2013-02-05 14:39:00,56.2,32.8,29.91,SW,217,0.0,0.0,41,0.00,,,0.00,WeatherTracker,2013-02-05 19:39:00,
2013-02-05 14:40:00,56.3,33.5,29.91,WNW,298,5.0,0.0,42,0.00,,,0.00,WeatherTracker,2013-02-05 19:40:00,
2013-02-05 14:44:00,56.0,32.6,29.91,West,271,4.0,0.0,41,0.00,,,0.00,WeatherTracker,2013-02-05 19:44:00,
2013-02-05 14:45:00,55.9,32.5,29.91,WSW,240,3.0,0.0,41,0.00,,,0.00,WeatherTracker,2013-02-05 19:45:00,
2013-02-05 14:46:00,55.9,32.5,29.91,WSW,252,2.0,0.0,41,0.00,,,0.00,WeatherTracker,2013-02-05 19:46:00,
2013-02-05 14:49:00,56.7,33.9,29.91,West,281,5.0,0.0,42,0.00,,,0.00,WeatherTracker,2013-02-05 19:49:00,
2013-02-05 14:50:00,56.8,34.0,29.91,SW,217,4.0,0.0,42,0.00,,,0.00,WeatherTracker,2013-02-05 19:50:00,
2013-02-05 14:51:00,56.8,33.4,29.91,WNW,282,1.0,0.0,41,0.00,,,0.00,WeatherTracker,2013-02-05 19:51:00,
2013-02-05 14:55:00,57.0,33.5,29.91,SW,227,3.0,0.0,41,0.00,,,0.00,WeatherTracker,2013-02-05 19:55:00,
2013-02-05 14:56:00,57.4,33.9,29.91,SSW,208,4.0,0.0,41,0.00,,,0.00,WeatherTracker,2013-02-05 19:56:00,
2013-02-05 14:57:00,57.5,33.4,29.91,SW,232,5.0,0.0,40,0.00,,,0.00,WeatherTracker,2013-02-05 19:57:00,
2013-02-05 15:00:00,56.9,32.8,29.91,SW,235,5.0,0.0,40,0.00,,,0.00,WeatherTracker,2013-02-05 20:00:00,
2013-02-05 15:01:00,56.8,32.7,29.91,SW,230,4.0,0.0,40,0.00,,,0.00,WeatherTracker,2013-02-05 20:01:00,
2013-02-05 15:02:00,56.8,32.7,29.91,SW,215,5.0,0.0,40,0.00,,,0.00,WeatherTracker,2013-02-05 20:02:00,
2013-02-05 15:05:00,56.6,32.6,29.91,SW,220,3.0,0.0,40,0.00,,,0.00,WeatherTracker,2013-02-05 20:05:00,
2013-02-05 15:07:00,56.5,32.5,29.91,West,279,7.0,0.0,40,0.00,,,0.00,WeatherTracker,2013-02-05 20:07:00,
2013-02-05 15:08:00,56.4,32.4,29.91,WNW,294,5.0,0.0,40,0.00,,,0.00,WeatherTracker,2013-02-05 20:08:00,
2013-02-05 15:10:00,56.5,33.1,29.91,West,266,1.0,0.0,41,0.00,,,0.00,WeatherTracker,2013-02-05 20:10:00,
2013-02-05 15:12:00,56.8,32.7,29.91,SW,219,3.0,0.0,40,0.00,,,0.00,WeatherTracker,2013-02-05 20:12:00,
2013-02-05 15:13:00,56.9,32.8,29.91,SW,220,3.0,0.0,40,0.00,,,0.00,WeatherTracker,2013-02-05 20:13:00,
2013-02-05 15:14:00,57.1,33.0,29.91,South,186,2.0,0.0,40,0.00,,,0.00,WeatherTracker,2013-02-05 20:14:00,
2013-02-05 15:17:00,57.1,33.0,29.91,West,261,2.0,0.0,40,0.00,,,0.00,WeatherTracker,2013-02-05 20:17:00,
2013-02-05 15:18:00,57.0,32.3,29.91,SW,236,4.0,0.0,39,0.00,,,0.00,WeatherTracker,2013-02-05 20:18:00,
2013-02-05 15:19:00,57.1,32.4,29.91,SSW,205,1.0,0.0,39,0.00,,,0.00,WeatherTracker,2013-02-05 20:19:00,
2013-02-05 15:22:00,57.1,32.4,29.91,SW,234,4.0,0.0,39,0.00,,,0.00,WeatherTracker,2013-02-05 20:22:00,
2013-02-05 15:23:00,57.0,32.3,29.91,WSW,245,5.0,0.0,39,0.00,,,0.00,WeatherTracker,2013-02-05 20:23:00,
2013-02-05 15:24:00,56.9,32.8,29.91,SW,228,4.0,0.0,40,0.00,,,0.00,WeatherTracker,2013-02-05 20:24:00,
2013-02-05 15:25:00,57.0,32.9,29.91,SW,219,3.0,0.0,40,0.00,,,0.00,WeatherTracker,2013-02-05 20:25:00,
2013-02-05 15:27:00,57.1,33.0,29.91,SW,218,3.0,0.0,40,0.00,,,0.00,WeatherTracker,2013-02-05 20:27:00,
2013-02-05 15:29:00,57.4,33.3,29.91,South,190,2.0,0.0,40,0.00,,,0.00,WeatherTracker,2013-02-05 20:29:00,
2013-02-05 15:30:00,57.5,32.7,29.91,South,190,2.0,0.0,39,0.00,,,0.00,WeatherTracker,2013-02-05 20:30:00,
2013-02-05 15:31:00,57.6,32.8,29.91,SSW,205,2.0,0.0,39,0.00,,,0.00,WeatherTracker,2013-02-05 20:31:00,
2013-02-05 15:32:00,57.8,33.6,29.91,SW,228,4.0,0.0,40,0.00,,,0.00,WeatherTracker,2013-02-05 20:32:00,
2013-02-05 15:34:00,57.8,33.6,29.91,WNW,290,3.0,0.0,40,0.00,,,0.00,WeatherTracker,2013-02-05 20:34:00,
2013-02-05 15:35:00,57.8,33.0,29.91,WSW,258,3.0,0.0,39,0.00,,,0.00,WeatherTracker,2013-02-05 20:35:00,
2013-02-05 15:37:00,57.6,32.8,29.91,WNW,294,3.0,0.0,39,0.00,,,0.00,WeatherTracker,2013-02-05 20:37:00,
2013-02-05 15:38:00,57.6,32.8,29.91,West,269,3.0,0.0,39,0.00,,,0.00,WeatherTracker,2013-02-05 20:38:00,
2013-02-05 15:40:00,57.6,32.8,29.91,SW,222,5.0,0.0,39,0.00,,,0.00,WeatherTracker,2013-02-05 20:40:00,
2013-02-05 15:41:00,57.6,32.8,29.91,SW,230,3.0,0.0,39,0.00,,,0.00,WeatherTracker,2013-02-05 20:41:00,
2013-02-05 15:43:00,57.6,32.8,29.91,WSW,254,3.0,0.0,39,0.00,,,0.00,WeatherTracker,2013-02-05 20:43:00,
2013-02-05 15:45:00,57.7,33.5,29.91,WNW,289,1.0,0.0,40,0.00,,,0.00,WeatherTracker,2013-02-05 20:45:00,
2013-02-05 15:46:00,57.9,33.1,29.91,SW,225,3.0,0.0,39,0.00,,,0.00,WeatherTracker,2013-02-05 20:46:00,
2013-02-05 15:49:00,58.0,33.2,29.91,WSW,240,5.0,0.0,39,0.00,,,0.00,WeatherTracker,2013-02-05 20:49:00,
2013-02-05 15:50:00,58.1,33.3,29.91,SW,236,5.0,0.0,39,0.00,,,0.00,WeatherTracker,2013-02-05 20:50:00,
2013-02-05 15:53:00,58.2,33.4,29.91,WSW,240,5.0,0.0,39,0.00,,,0.00,WeatherTracker,2013-02-05 20:53:00,
2013-02-05 15:54:00,58.2,33.4,29.91,WSW,250,8.0,0.0,39,0.00,,,0.00,WeatherTracker,2013-02-05 20:54:00,
2013-02-05 15:55:00,58.0,33.2,29.91,SW,236,8.0,0.0,39,0.00,,,0.00,WeatherTracker,2013-02-05 20:55:00,
2013-02-05 15:56:00,58.0,33.2,29.91,SW,233,9.0,0.0,39,0.00,,,0.00,WeatherTracker,2013-02-05 20:56:00,
2013-02-05 15:58:00,57.9,33.1,29.91,WNW,294,9.0,0.0,39,0.00,,,0.00,WeatherTracker,2013-02-05 20:58:00,
2013-02-05 15:59:00,57.9,33.1,29.91,WSW,257,7.0,0.0,39,0.00,,,0.00,WeatherTracker,2013-02-05 20:59:00,
2013-02-05 16:00:00,57.8,33.0,29.91,SW,225,8.0,0.0,39,0.00,,,0.00,WeatherTracker,2013-02-05 21:00:00,
2013-02-05 16:01:00,57.7,32.9,29.91,WSW,237,8.0,0.0,39,0.00,,,0.00,WeatherTracker,2013-02-05 21:01:00,
2013-02-05 16:03:00,57.7,32.9,29.91,West,270,8.0,0.0,39,0.00,,,0.00,WeatherTracker,2013-02-05 21:03:00,
2013-02-05 16:04:00,57.7,32.9,29.91,SW,229,6.0,0.0,39,0.00,,,0.00,WeatherTracker,2013-02-05 21:04:00,
2013-02-05 16:06:00,57.8,33.0,29.91,West,270,7.0,0.0,39,0.00,,,0.00,WeatherTracker,2013-02-05 21:06:00,
2013-02-05 16:08:00,57.7,33.5,29.91,WSW,244,6.0,0.0,40,0.00,,,0.00,WeatherTracker,2013-02-05 21:08:00,
2013-02-05 16:10:00,57.7,33.5,29.91,SW,236,4.0,0.0,40,0.00,,,0.00,WeatherTracker,2013-02-05 21:10:00,
2013-02-05 16:11:00,57.7,33.5,29.91,SW,233,9.0,0.0,40,0.00,,,0.00,WeatherTracker,2013-02-05 21:11:00,
2013-02-05 16:13:00,57.7,33.5,29.91,West,265,6.0,0.0,40,0.00,,,0.00,WeatherTracker,2013-02-05 21:13:00,
2013-02-05 16:15:00,57.8,33.6,29.91,SW,217,8.0,0.0,40,0.00,,,0.00,WeatherTracker,2013-02-05 21:15:00,
2013-02-05 16:16:00,57.8,33.6,29.91,WSW,240,7.0,0.0,40,0.00,,,0.00,WeatherTracker,2013-02-05 21:16:00,
2013-02-05 16:17:00,57.8,33.6,29.92,West,263,6.0,0.0,40,0.00,,,0.00,WeatherTracker,2013-02-05 21:17:00,
2013-02-05 16:18:00,57.8,33.6,29.92,West,263,10.0,0.0,40,0.00,,,0.00,WeatherTracker,2013-02-05 21:18:00,
2013-02-05 16:20:00,57.8,33.6,29.91,SW,236,3.0,0.0,40,0.00,,,0.00,WeatherTracker,2013-02-05 21:20:00,
2013-02-05 16:21:00,57.8,33.6,29.91,West,265,5.0,0.0,40,0.00,,,0.00,WeatherTracker,2013-02-05 21:21:00,
2013-02-05 16:22:00,57.8,33.6,29.91,NW,315,5.0,0.0,40,0.00,,,0.00,WeatherTracker,2013-02-05 21:22:00,
2013-02-05 16:24:00,57.8,34.3,29.91,West,276,1.0,0.0,41,0.00,,,0.00,WeatherTracker,2013-02-05 21:24:00,
2013-02-05 16:26:00,57.8,34.3,29.91,SW,232,5.0,0.0,41,0.00,,,0.00,WeatherTracker,2013-02-05 21:26:00,
2013-02-05 16:27:00,57.8,34.3,29.91,WSW,242,8.0,0.0,41,0.00,,,0.00,WeatherTracker,2013-02-05 21:27:00,
2013-02-05 16:30:00,57.8,33.6,29.91,SW,229,8.0,0.0,40,0.00,,,0.00,WeatherTracker,2013-02-05 21:30:00,
2013-02-05 16:31:00,57.8,33.6,29.91,SW,227,5.0,0.0,40,0.00,,,0.00,WeatherTracker,2013-02-05 21:31:00,
2013-02-05 16:32:00,57.8,34.3,29.92,SW,233,6.0,0.0,41,0.00,,,0.00,WeatherTracker,2013-02-05 21:32:00,
2013-02-05 16:33:00,57.9,33.7,29.91,SW,236,8.0,0.0,40,0.00,,,0.00,WeatherTracker,2013-02-05 21:33:00,
2013-02-05 16:35:00,57.9,34.3,29.92,West,267,5.0,0.0,41,0.00,,,0.00,WeatherTracker,2013-02-05 21:35:00,
2013-02-05 16:36:00,57.8,33.6,29.92,West,281,5.0,0.0,40,0.00,,,0.00,WeatherTracker,2013-02-05 21:36:00,
2013-02-05 16:37:00,57.8,34.3,29.92,West,259,6.0,0.0,41,0.00,,,0.00,WeatherTracker,2013-02-05 21:37:00,
2013-02-05 16:39:00,57.7,34.2,29.92,WSW,255,6.0,0.0,41,0.00,,,0.00,WeatherTracker,2013-02-05 21:39:00,
2013-02-05 16:40:00,57.6,33.5,29.92,West,260,4.0,0.0,40,0.00,,,0.00,WeatherTracker,2013-02-05 21:40:00,
2013-02-05 16:41:00,57.5,34.0,29.92,West,267,5.0,0.0,41,0.00,,,0.00,WeatherTracker,2013-02-05 21:41:00,
2013-02-05 16:42:00,57.5,34.0,29.92,West,274,6.0,0.0,41,0.00,,,0.00,WeatherTracker,2013-02-05 21:42:00,
2013-02-05 16:44:00,57.4,33.9,29.92,WSW,257,4.0,0.0,41,0.00,,,0.00,WeatherTracker,2013-02-05 21:44:00,
2013-02-05 16:46:00,57.3,33.8,29.92,WSW,242,3.0,0.0,41,0.00,,,0.00,WeatherTracker,2013-02-05 21:46:00,
2013-02-05 16:47:00,57.2,33.7,29.92,West,270,5.0,0.0,41,0.00,,,0.00,WeatherTracker,2013-02-05 21:47:00,
2013-02-05 16:49:00,57.2,33.7,29.92,West,267,4.0,0.0,41,0.00,,,0.00,WeatherTracker,2013-02-05 21:49:00,
2013-02-05 16:51:00,57.1,33.6,29.92,SW,236,4.0,0.0,41,0.00,,,0.00,WeatherTracker,2013-02-05 21:51:00,
2013-02-05 16:52:00,57.1,33.6,29.92,WNW,298,9.0,0.0,41,0.00,,,0.00,WeatherTracker,2013-02-05 21:52:00,
2013-02-05 16:53:00,57.1,33.6,29.91,West,262,8.0,0.0,41,0.00,,,0.00,WeatherTracker,2013-02-05 21:53:00,
2013-02-05 16:56:00,57.1,33.6,29.91,West,273,1.0,0.0,41,0.00,,,0.00,WeatherTracker,2013-02-05 21:56:00,
2013-02-05 16:57:00,57.1,33.6,29.91,WNW,294,8.0,0.0,41,0.00,,,0.00,WeatherTracker,2013-02-05 21:57:00,
2013-02-05 16:58:00,57.1,33.6,29.91,West,272,5.0,0.0,41,0.00,,,0.00,WeatherTracker,2013-02-05 21:58:00,
2013-02-05 17:01:00,57.2,33.7,29.91,SW,231,5.0,0.0,41,0.00,,,0.00,WeatherTracker,2013-02-05 22:01:00,
2013-02-05 17:03:00,57.2,33.7,29.91,WSW,252,5.0,0.0,41,0.00,,,0.00,WeatherTracker,2013-02-05 22:03:00,
2013-02-05 17:07:00,57.2,33.7,29.91,WSW,255,1.0,0.0,41,0.00,,,0.00,WeatherTracker,2013-02-05 22:07:00,
2013-02-05 17:08:00,57.1,34.2,29.91,WSW,255,1.0,0.0,42,0.00,,,0.00,WeatherTracker,2013-02-05 22:08:00,
2013-02-05 17:12:00,56.9,34.0,29.91,SW,233,4.0,0.0,42,0.00,,,0.00,WeatherTracker,2013-02-05 22:12:00,
2013-02-05 17:13:00,57.0,34.1,29.91,WSW,239,5.0,0.0,42,0.00,,,0.00,WeatherTracker,2013-02-05 22:13:00,
2013-02-05 17:14:00,57.0,34.1,29.91,SW,236,3.0,0.0,42,0.00,,,0.00,WeatherTracker,2013-02-05 22:14:00,
2013-02-05 17:15:00,57.0,34.1,29.91,West,268,3.0,0.0,42,0.00,,,0.00,WeatherTracker,2013-02-05 22:15:00,
2013-02-05 17:17:00,56.9,34.0,29.91,WSW,240,4.0,0.0,42,0.00,,,0.00,WeatherTracker,2013-02-05 22:17:00,
2013-02-05 17:19:00,56.8,34.0,29.91,West,259,3.0,0.0,42,0.00,,,0.00,WeatherTracker,2013-02-05 22:19:00,
2013-02-05 17:20:00,56.8,34.0,29.91,SW,233,5.0,0.0,42,0.00,,,0.00,WeatherTracker,2013-02-05 22:20:00,
2013-02-05 17:22:00,56.7,33.9,29.91,West,265,4.0,0.0,42,0.00,,,0.00,WeatherTracker,2013-02-05 22:22:00,
2013-02-05 17:25:00,56.5,34.3,29.91,West,262,3.0,0.0,43,0.00,,,0.00,WeatherTracker,2013-02-05 22:25:00,
2013-02-05 17:27:00,56.5,34.3,29.91,SW,227,3.0,0.0,43,0.00,,,0.00,WeatherTracker,2013-02-05 22:27:00,
2013-02-05 17:28:00,56.4,33.6,29.92,WSW,246,3.0,0.0,42,0.00,,,0.00,WeatherTracker,2013-02-05 22:28:00,
2013-02-05 17:30:00,56.5,34.3,29.92,SW,220,3.0,0.0,43,0.00,,,0.00,WeatherTracker,2013-02-05 22:30:00,
2013-02-05 17:31:00,56.5,34.3,29.92,SW,220,1.0,0.0,43,0.00,,,0.00,WeatherTracker,2013-02-05 22:31:00,
2013-02-05 17:32:00,56.5,34.3,29.92,WSW,244,1.0,0.0,43,0.00,,,0.00,WeatherTracker,2013-02-05 22:32:00,
2013-02-05 17:33:00,56.4,34.2,29.92,WSW,244,3.0,0.0,43,0.00,,,0.00,WeatherTracker,2013-02-05 22:33:00,
2013-02-05 17:36:00,56.3,34.1,29.91,WSW,244,2.0,0.0,43,0.00,,,0.00,WeatherTracker,2013-02-05 22:36:00,
2013-02-05 17:37:00,56.3,34.1,29.91,WSW,244,1.0,0.0,43,0.00,,,0.00,WeatherTracker,2013-02-05 22:37:00,
2013-02-05 17:38:00,56.2,34.0,29.91,WSW,244,1.0,0.0,43,0.00,,,0.00,WeatherTracker,2013-02-05 22:38:00,
2013-02-05 17:41:00,56.0,33.8,29.92,WSW,244,1.0,0.0,43,0.00,,,0.00,WeatherTracker,2013-02-05 22:41:00,
2013-02-05 17:43:00,55.9,33.7,29.92,WSW,244,1.0,0.0,43,0.00,,,0.00,WeatherTracker,2013-02-05 22:43:00,
2013-02-05 17:44:00,55.8,33.6,29.92,WSW,244,2.0,0.0,43,0.00,,,0.00,WeatherTracker,2013-02-05 22:44:00,
2013-02-05 17:45:00,55.8,33.6,29.92,WSW,244,1.0,0.0,43,0.00,,,0.00,WeatherTracker,2013-02-05 22:45:00,
2013-02-05 17:47:00,55.8,34.2,29.92,WSW,244,2.0,0.0,44,0.00,,,0.00,WeatherTracker,2013-02-05 22:47:00,
2013-02-05 17:48:00,55.7,34.1,29.92,WSW,244,1.0,0.0,44,0.00,,,0.00,WeatherTracker,2013-02-05 22:48:00,
2013-02-05 17:49:00,55.7,34.1,29.92,WSW,244,1.0,0.0,44,0.00,,,0.00,WeatherTracker,2013-02-05 22:49:00,
2013-02-05 17:51:00,55.7,34.1,29.92,WSW,244,1.0,0.0,44,0.00,,,0.00,WeatherTracker,2013-02-05 22:51:00,
2013-02-05 17:52:00,55.6,34.0,29.92,WSW,244,2.0,0.0,44,0.00,,,0.00,WeatherTracker,2013-02-05 22:52:00,
2013-02-05 17:53:00,55.6,34.0,29.92,WSW,244,2.0,0.0,44,0.00,,,0.00,WeatherTracker,2013-02-05 22:53:00,
2013-02-05 17:56:00,55.6,34.0,29.92,WSW,242,2.0,0.0,44,0.00,,,0.00,WeatherTracker,2013-02-05 22:56:00,
2013-02-05 17:57:00,55.6,34.0,29.92,WSW,242,0.0,0.0,44,0.00,,,0.00,WeatherTracker,2013-02-05 22:57:00,
2013-02-05 17:59:00,55.4,33.9,29.92,WSW,242,1.0,0.0,44,0.00,,,0.00,WeatherTracker,2013-02-05 22:59:00,
2013-02-05 18:01:00,55.3,33.8,29.92,WSW,242,0.0,0.0,44,0.00,,,0.00,WeatherTracker,2013-02-05 23:01:00,
2013-02-05 18:03:00,55.2,34.2,29.92,WSW,242,0.0,0.0,45,0.00,,,0.00,WeatherTracker,2013-02-05 23:03:00,
2013-02-05 18:05:00,54.9,34.0,29.92,WSW,242,0.0,0.0,45,0.00,,,0.00,WeatherTracker,2013-02-05 23:05:00,
2013-02-05 18:06:00,54.6,34.2,29.92,WSW,242,0.0,0.0,46,0.00,,,0.00,WeatherTracker,2013-02-05 23:06:00,
2013-02-05 18:07:00,54.4,34.1,29.92,WSW,242,0.0,0.0,46,0.00,,,0.00,WeatherTracker,2013-02-05 23:07:00,
2013-02-05 18:08:00,54.1,34.3,29.92,WSW,242,0.0,0.0,47,0.00,,,0.00,WeatherTracker,2013-02-05 23:08:00,
2013-02-05 18:10:00,53.8,34.0,29.92,WSW,242,0.0,0.0,47,0.00,,,0.00,WeatherTracker,2013-02-05 23:10:00,
2013-02-05 18:12:00,53.6,33.9,29.92,WSW,242,0.0,0.0,47,0.00,,,0.00,WeatherTracker,2013-02-05 23:12:00,
2013-02-05 18:13:00,53.6,33.9,29.92,WSW,242,0.0,0.0,47,0.00,,,0.00,WeatherTracker,2013-02-05 23:13:00,
2013-02-05 18:16:00,53.5,34.3,29.92,WSW,242,0.0,0.0,48,0.00,,,0.00,WeatherTracker,2013-02-05 23:16:00,
2013-02-05 18:18:00,53.5,34.3,29.93,WSW,242,0.0,0.0,48,0.00,,,0.00,WeatherTracker,2013-02-05 23:18:00,
2013-02-05 18:21:00,53.3,34.1,29.92,WSW,242,0.0,0.0,48,0.00,,,0.00,WeatherTracker,2013-02-05 23:21:00,
2013-02-05 18:22:00,53.2,34.0,29.93,WSW,242,0.0,0.0,48,0.00,,,0.00,WeatherTracker,2013-02-05 23:22:00,
2013-02-05 18:23:00,53.1,33.9,29.93,WSW,242,0.0,0.0,48,0.00,,,0.00,WeatherTracker,2013-02-05 23:23:00,
2013-02-05 18:26:00,52.9,34.3,29.93,WSW,242,0.0,0.0,49,0.00,,,0.00,WeatherTracker,2013-02-05 23:26:00,
2013-02-05 18:27:00,52.9,34.3,29.93,WSW,242,0.0,0.0,49,0.00,,,0.00,WeatherTracker,2013-02-05 23:27:00,
2013-02-05 18:29:00,53.0,33.8,29.93,WSW,242,0.0,0.0,48,0.00,,,0.00,WeatherTracker,2013-02-05 23:29:00,
2013-02-05 18:32:00,52.8,34.2,29.93,WSW,242,0.0,0.0,49,0.00,,,0.00,WeatherTracker,2013-02-05 23:32:00,
2013-02-05 18:33:00,52.8,34.2,29.93,WSW,242,0.0,0.0,49,0.00,,,0.00,WeatherTracker,2013-02-05 23:33:00,
2013-02-05 18:34:00,52.7,34.1,29.93,WSW,242,0.0,0.0,49,0.00,,,0.00,WeatherTracker,2013-02-05 23:34:00,
2013-02-05 18:37:00,52.3,34.2,29.93,WSW,242,0.0,0.0,50,0.00,,,0.00,WeatherTracker,2013-02-05 23:37:00,
2013-02-05 18:39:00,52.1,34.0,29.93,WSW,242,0.0,0.0,50,0.00,,,0.00,WeatherTracker,2013-02-05 23:39:00,
2013-02-05 18:41:00,52.0,33.9,29.93,WSW,242,0.0,0.0,50,0.00,,,0.00,WeatherTracker,2013-02-05 23:41:00,
2013-02-05 18:42:00,52.0,33.9,29.93,WSW,242,0.0,0.0,50,0.00,,,0.00,WeatherTracker,2013-02-05 23:42:00,
2013-02-05 18:45:00,51.8,34.3,29.93,WSW,242,0.0,0.0,51,0.00,,,0.00,WeatherTracker,2013-02-05 23:45:00,
2013-02-05 18:46:00,51.7,34.2,29.93,WSW,242,0.0,0.0,51,0.00,,,0.00,WeatherTracker,2013-02-05 23:46:00,
2013-02-05 18:47:00,51.6,34.1,29.93,WSW,242,0.0,0.0,51,0.00,,,0.00,WeatherTracker,2013-02-05 23:47:00,
2013-02-05 18:51:00,50.9,34.4,29.93,WSW,242,0.0,0.0,53,0.00,,,0.00,WeatherTracker,2013-02-05 23:51:00,
2013-02-05 18:52:00,50.9,34.4,29.93,WSW,242,0.0,0.0,53,0.00,,,0.00,WeatherTracker,2013-02-05 23:52:00,
2013-02-05 18:56:00,50.1,34.1,29.94,WSW,242,0.0,0.0,54,0.00,,,0.00,WeatherTracker,2013-02-05 23:56:00,
2013-02-05 18:57:00,49.9,33.9,29.94,WSW,242,0.0,0.0,54,0.00,,,0.00,WeatherTracker,2013-02-05 23:57:00,
2013-02-05 18:58:00,49.8,33.8,29.94,WSW,242,0.0,0.0,54,0.00,,,0.00,WeatherTracker,2013-02-05 23:58:00,
2013-02-05 19:01:00,49.2,34.2,29.94,WSW,242,0.0,0.0,56,0.00,,,0.00,WeatherTracker,2013-02-06 00:01:00,
2013-02-05 19:02:00,49.1,34.1,29.94,WSW,242,0.0,0.0,56,0.00,,,0.00,WeatherTracker,2013-02-06 00:02:00,
2013-02-05 19:03:00,48.9,34.3,29.94,WSW,242,0.0,0.0,57,0.00,,,0.00,WeatherTracker,2013-02-06 00:03:00,
2013-02-05 19:07:00,48.7,34.6,29.94,WSW,242,0.0,0.0,58,0.00,,,0.00,WeatherTracker,2013-02-06 00:07:00,
2013-02-05 19:08:00,48.5,34.8,29.94,WSW,242,1.0,0.0,59,0.00,,,0.00,WeatherTracker,2013-02-06 00:08:00,
2013-02-05 19:12:00,48.0,34.8,29.94,WSW,242,1.0,0.0,60,0.00,,,0.00,WeatherTracker,2013-02-06 00:12:00,
2013-02-05 19:13:00,47.7,34.5,29.95,WNW,299,3.0,0.0,60,0.00,,,0.00,WeatherTracker,2013-02-06 00:13:00,
2013-02-05 19:14:00,47.5,34.7,29.95,WNW,299,2.0,0.0,61,0.00,,,0.00,WeatherTracker,2013-02-06 00:14:00,
2013-02-05 19:17:00,46.9,34.6,29.95,WNW,299,2.0,0.0,62,0.00,,,0.00,WeatherTracker,2013-02-06 00:17:00,
2013-02-05 19:19:00,46.7,34.4,29.95,WNW,299,1.0,0.0,62,0.00,,,0.00,WeatherTracker,2013-02-06 00:19:00,
2013-02-05 19:21:00,46.8,34.1,29.95,WNW,299,0.0,0.0,61,0.00,,,0.00,WeatherTracker,2013-02-06 00:21:00,
2013-02-05 19:22:00,46.8,34.1,29.95,WNW,299,1.0,0.0,61,0.00,,,0.00,WeatherTracker,2013-02-06 00:22:00,
2013-02-05 19:24:00,46.8,33.7,29.95,WNW,299,2.0,0.0,60,0.00,,,0.00,WeatherTracker,2013-02-06 00:24:00,
2013-02-05 19:25:00,46.9,33.7,29.95,WNW,299,2.0,0.0,60,0.00,,,0.00,WeatherTracker,2013-02-06 00:25:00,
2013-02-05 19:26:00,47.0,33.8,29.95,WNW,299,1.0,0.0,60,0.00,,,0.00,WeatherTracker,2013-02-06 00:26:00,
2013-02-05 19:27:00,47.0,33.8,29.95,WNW,299,0.0,0.0,60,0.00,,,0.00,WeatherTracker,2013-02-06 00:27:00,
2013-02-05 19:29:00,46.9,33.7,29.95,WNW,299,1.0,0.0,60,0.00,,,0.00,WeatherTracker,2013-02-06 00:29:00,
2013-02-05 19:30:00,46.9,33.7,29.95,WNW,299,0.0,0.0,60,0.00,,,0.00,WeatherTracker,2013-02-06 00:30:00,
2013-02-05 19:31:00,46.9,33.7,29.95,WNW,299,0.0,0.0,60,0.00,,,0.00,WeatherTracker,2013-02-06 00:31:00,
2013-02-05 19:33:00,47.0,33.8,29.95,WNW,299,1.0,0.0,60,0.00,,,0.00,WeatherTracker,2013-02-06 00:33:00,
2013-02-05 19:34:00,47.0,33.8,29.95,WNW,299,2.0,0.0,60,0.00,,,0.00,WeatherTracker,2013-02-06 00:34:00,
2013-02-05 19:35:00,47.1,33.9,29.95,WNW,299,2.0,0.0,60,0.00,,,0.00,WeatherTracker,2013-02-06 00:35:00,
2013-02-05 19:37:00,47.2,33.6,29.95,WNW,299,2.0,0.0,59,0.00,,,0.00,WeatherTracker,2013-02-06 00:37:00,
2013-02-05 19:38:00,47.3,33.7,29.95,WNW,299,1.0,0.0,59,0.00,,,0.00,WeatherTracker,2013-02-06 00:38:00,
2013-02-05 19:40:00,47.4,33.8,29.96,WNW,300,3.0,0.0,59,0.00,,,0.00,WeatherTracker,2013-02-06 00:40:00,
2013-02-05 19:42:00,47.5,33.9,29.96,WNW,300,2.0,0.0,59,0.00,,,0.00,WeatherTracker,2013-02-06 00:42:00,
2013-02-05 19:43:00,47.5,33.9,29.96,WNW,300,2.0,0.0,59,0.00,,,0.00,WeatherTracker,2013-02-06 00:43:00,
2013-02-05 19:45:00,47.3,34.1,29.96,WNW,300,1.0,0.0,60,0.00,,,0.00,WeatherTracker,2013-02-06 00:45:00,
2013-02-05 19:46:00,47.1,33.9,29.96,WNW,288,3.0,0.0,60,0.00,,,0.00,WeatherTracker,2013-02-06 00:46:00,
2013-02-05 19:47:00,47.0,33.8,29.96,WNW,298,1.0,0.0,60,0.00,,,0.00,WeatherTracker,2013-02-06 00:47:00,
2013-02-05 19:49:00,46.8,33.7,29.96,WNW,298,2.0,0.0,60,0.00,,,0.00,WeatherTracker,2013-02-06 00:49:00,
2013-02-05 19:50:00,46.8,34.1,29.96,West,276,2.0,0.0,61,0.00,,,0.00,WeatherTracker,2013-02-06 00:50:00,
2013-02-05 19:51:00,46.7,34.0,29.96,West,276,2.0,0.0,61,0.00,,,0.00,WeatherTracker,2013-02-06 00:51:00,
2013-02-05 19:52:00,46.5,33.8,29.96,West,276,1.0,0.0,61,0.00,,,0.00,WeatherTracker,2013-02-06 00:52:00,
2013-02-05 19:54:00,46.3,34.0,29.96,West,277,1.0,0.0,62,0.00,,,0.00,WeatherTracker,2013-02-06 00:54:00,
2013-02-05 19:56:00,46.3,34.0,29.96,NW,306,3.0,0.0,62,0.00,,,0.00,WeatherTracker,2013-02-06 00:56:00,
2013-02-05 19:57:00,46.4,33.7,29.96,NW,306,3.0,0.0,61,0.00,,,0.00,WeatherTracker,2013-02-06 00:57:00,
2013-02-05 20:00:00,46.8,34.1,29.96,WNW,298,3.0,0.0,61,0.00,,,0.00,WeatherTracker,2013-02-06 01:00:00,
2013-02-05 20:01:00,46.9,33.7,29.96,WNW,296,1.0,0.0,60,0.00,,,0.00,WeatherTracker,2013-02-06 01:01:00,
2013-02-05 20:02:00,47.0,33.8,29.96,WNW,291,2.0,0.0,60,0.00,,,0.00,WeatherTracker,2013-02-06 01:02:00,
2013-02-05 20:03:00,47.1,33.9,29.96,WNW,291,2.0,0.0,60,0.00,,,0.00,WeatherTracker,2013-02-06 01:03:00,
2013-02-05 20:06:00,47.4,34.2,29.96,WNW,290,2.0,0.0,60,0.00,,,0.00,WeatherTracker,2013-02-06 01:06:00,
2013-02-05 20:07:00,47.5,33.9,29.96,WNW,295,2.0,0.0,59,0.00,,,0.00,WeatherTracker,2013-02-06 01:07:00,
2013-02-05 20:08:00,47.5,33.9,29.96,WNW,288,3.0,0.0,59,0.00,,,0.00,WeatherTracker,2013-02-06 01:08:00,
2013-02-05 20:11:00,47.5,34.3,29.96,West,270,2.0,0.0,60,0.00,,,0.00,WeatherTracker,2013-02-06 01:11:00,
2013-02-05 20:12:00,47.4,33.8,29.96,West,270,0.0,0.0,59,0.00,,,0.00,WeatherTracker,2013-02-06 01:12:00,
2013-02-05 20:13:00,47.3,33.7,29.96,West,270,0.0,0.0,59,0.00,,,0.00,WeatherTracker,2013-02-06 01:13:00,
2013-02-05 20:16:00,47.3,34.1,29.96,West,271,1.0,0.0,60,0.00,,,0.00,WeatherTracker,2013-02-06 01:16:00,
2013-02-05 20:18:00,47.3,33.7,29.96,West,271,1.0,0.0,59,0.00,,,0.00,WeatherTracker,2013-02-06 01:18:00,
2013-02-05 20:19:00,47.3,33.7,29.96,West,271,0.0,0.0,59,0.00,,,0.00,WeatherTracker,2013-02-06 01:19:00,
2013-02-05 20:22:00,47.3,33.7,29.96,West,271,0.0,0.0,59,0.00,,,0.00,WeatherTracker,2013-02-06 01:22:00,
2013-02-05 20:23:00,47.3,33.7,29.96,West,271,0.0,0.0,59,0.00,,,0.00,WeatherTracker,2013-02-06 01:23:00,
2013-02-05 20:24:00,47.3,33.7,29.96,West,271,0.0,0.0,59,0.00,,,0.00,WeatherTracker,2013-02-06 01:24:00,
2013-02-05 20:27:00,47.3,33.7,29.96,West,271,0.0,0.0,59,0.00,,,0.00,WeatherTracker,2013-02-06 01:27:00,
2013-02-05 20:28:00,47.3,33.7,29.96,West,271,0.0,0.0,59,0.00,,,0.00,WeatherTracker,2013-02-06 01:28:00,
2013-02-05 20:29:00,47.3,33.7,29.96,West,271,0.0,0.0,59,0.00,,,0.00,WeatherTracker,2013-02-06 01:29:00,
2013-02-05 20:30:00,47.3,33.7,29.96,West,271,0.0,0.0,59,0.00,,,0.00,WeatherTracker,2013-02-06 01:30:00,
2013-02-05 20:33:00,47.1,33.9,29.96,West,271,0.0,0.0,60,0.00,,,0.00,WeatherTracker,2013-02-06 01:33:00,
2013-02-05 20:34:00,47.0,33.8,29.96,West,271,0.0,0.0,60,0.00,,,0.00,WeatherTracker,2013-02-06 01:34:00,
2013-02-05 20:36:00,46.8,33.7,29.96,West,271,0.0,0.0,60,0.00,,,0.00,WeatherTracker,2013-02-06 01:36:00,
2013-02-05 20:38:00,46.6,33.5,29.96,West,271,0.0,0.0,60,0.00,,,0.00,WeatherTracker,2013-02-06 01:38:00,
2013-02-05 20:39:00,46.6,33.5,29.96,West,271,0.0,0.0,60,0.00,,,0.00,WeatherTracker,2013-02-06 01:39:00,
2013-02-05 20:40:00,46.7,33.6,29.96,West,271,0.0,0.0,60,0.00,,,0.00,WeatherTracker,2013-02-06 01:40:00,
2013-02-05 20:42:00,46.8,33.7,29.96,West,271,0.0,0.0,60,0.00,,,0.00,WeatherTracker,2013-02-06 01:42:00,
2013-02-05 20:43:00,46.8,33.7,29.96,West,271,0.0,0.0,60,0.00,,,0.00,WeatherTracker,2013-02-06 01:43:00,
2013-02-05 20:44:00,46.8,33.7,29.96,West,271,0.0,0.0,60,0.00,,,0.00,WeatherTracker,2013-02-06 01:44:00,
2013-02-05 20:46:00,46.7,33.6,29.97,West,271,0.0,0.0,60,0.00,,,0.00,WeatherTracker,2013-02-06 01:46:00,
2013-02-05 20:47:00,46.5,33.8,29.97,West,271,0.0,0.0,61,0.00,,,0.00,WeatherTracker,2013-02-06 01:47:00,
2013-02-05 20:49:00,46.3,33.6,29.97,West,271,0.0,0.0,61,0.00,,,0.00,WeatherTracker,2013-02-06 01:49:00,
2013-02-05 20:50:00,46.3,33.6,29.97,West,271,0.0,0.0,61,0.00,,,0.00,WeatherTracker,2013-02-06 01:50:00,
2013-02-05 20:51:00,46.2,33.5,29.97,West,271,0.0,0.0,61,0.00,,,0.00,WeatherTracker,2013-02-06 01:51:00,
2013-02-05 20:53:00,45.7,33.4,29.97,West,271,0.0,0.0,62,0.00,,,0.00,WeatherTracker,2013-02-06 01:53:00,
2013-02-05 20:54:00,45.5,33.6,29.97,West,271,0.0,0.0,63,0.00,,,0.00,WeatherTracker,2013-02-06 01:54:00,
2013-02-05 20:55:00,45.3,33.5,29.97,West,271,0.0,0.0,63,0.00,,,0.00,WeatherTracker,2013-02-06 01:55:00,
2013-02-05 20:56:00,45.1,33.7,29.97,West,271,0.0,0.0,64,0.00,,,0.00,WeatherTracker,2013-02-06 01:56:00,
2013-02-05 20:58:00,44.5,33.5,29.97,West,271,0.0,0.0,65,0.00,,,0.00,WeatherTracker,2013-02-06 01:58:00,
2013-02-05 20:59:00,44.3,33.3,29.97,West,271,0.0,0.0,65,0.00,,,0.00,WeatherTracker,2013-02-06 01:59:00,
2013-02-05 21:00:00,44.0,33.4,29.97,West,271,0.0,0.0,66,0.00,,,0.00,WeatherTracker,2013-02-06 02:00:00,
2013-02-05 21:02:00,43.5,33.3,29.97,West,271,0.0,0.0,67,0.00,,,0.00,WeatherTracker,2013-02-06 02:02:00,
2013-02-05 21:03:00,43.4,33.2,29.97,West,271,0.0,0.0,67,0.00,,,0.00,WeatherTracker,2013-02-06 02:03:00,
2013-02-05 21:04:00,43.5,33.3,29.97,West,271,0.0,0.0,67,0.00,,,0.00,WeatherTracker,2013-02-06 02:04:00,
2013-02-05 21:05:00,43.6,33.4,29.97,West,271,0.0,0.0,67,0.00,,,0.00,WeatherTracker,2013-02-06 02:05:00,
2013-02-05 21:07:00,43.2,33.4,29.98,West,271,0.0,0.0,68,0.00,,,0.00,WeatherTracker,2013-02-06 02:07:00,
2013-02-05 21:09:00,42.8,33.3,29.98,West,271,0.0,0.0,69,0.00,,,0.00,WeatherTracker,2013-02-06 02:09:00,
2013-02-05 21:11:00,42.4,33.3,29.97,West,271,1.0,0.0,70,0.00,,,0.00,WeatherTracker,2013-02-06 02:11:00,
2013-02-05 21:12:00,42.6,33.2,29.98,West,271,0.0,0.0,69,0.00,,,0.00,WeatherTracker,2013-02-06 02:12:00,
2013-02-05 21:14:00,43.2,34.1,29.98,West,271,0.0,0.0,70,0.00,,,0.00,WeatherTracker,2013-02-06 02:14:00,
2013-02-05 21:15:00,43.6,34.1,29.98,West,271,0.0,0.0,69,0.00,,,0.00,WeatherTracker,2013-02-06 02:15:00,
2013-02-05 21:16:00,43.8,33.9,29.98,West,271,0.0,0.0,68,0.00,,,0.00,WeatherTracker,2013-02-06 02:16:00,
2013-02-05 21:17:00,43.9,33.7,29.98,West,271,0.0,0.0,67,0.00,,,0.00,WeatherTracker,2013-02-06 02:17:00,
2013-02-05 21:19:00,44.1,33.5,29.98,West,271,0.0,0.0,66,0.00,,,0.00,WeatherTracker,2013-02-06 02:19:00,
2013-02-05 21:20:00,44.3,33.7,29.98,West,271,0.0,0.0,66,0.00,,,0.00,WeatherTracker,2013-02-06 02:20:00,
2013-02-05 21:21:00,44.5,33.5,29.98,West,271,0.0,0.0,65,0.00,,,0.00,WeatherTracker,2013-02-06 02:21:00,
2013-02-05 21:22:00,44.6,33.6,29.98,West,271,0.0,0.0,65,0.00,,,0.00,WeatherTracker,2013-02-06 02:22:00,
2013-02-05 21:24:00,44.6,33.6,29.98,West,271,0.0,0.0,65,0.00,,,0.00,WeatherTracker,2013-02-06 02:24:00,
2013-02-05 21:25:00,44.5,33.5,29.98,West,271,0.0,0.0,65,0.00,,,0.00,WeatherTracker,2013-02-06 02:25:00,
2013-02-05 21:27:00,44.2,33.6,29.98,West,271,0.0,0.0,66,0.00,,,0.00,WeatherTracker,2013-02-06 02:27:00,
2013-02-05 21:28:00,44.1,33.5,29.98,West,271,0.0,0.0,66,0.00,,,0.00,WeatherTracker,2013-02-06 02:28:00,
2013-02-05 21:29:00,44.0,33.4,29.98,West,271,0.0,0.0,66,0.00,,,0.00,WeatherTracker,2013-02-06 02:29:00,
2013-02-05 21:31:00,43.9,33.3,29.98,West,271,0.0,0.0,66,0.00,,,0.00,WeatherTracker,2013-02-06 02:31:00,
2013-02-05 21:33:00,43.8,33.2,29.98,West,271,0.0,0.0,66,0.00,,,0.00,WeatherTracker,2013-02-06 02:33:00,
2013-02-05 21:34:00,43.7,33.1,29.98,West,271,0.0,0.0,66,0.00,,,0.00,WeatherTracker,2013-02-06 02:34:00,
2013-02-05 21:36:00,43.8,33.2,29.98,West,271,0.0,0.0,66,0.00,,,0.00,WeatherTracker,2013-02-06 02:36:00,
2013-02-05 21:38:00,43.8,33.2,29.98,West,271,0.0,0.0,66,0.00,,,0.00,WeatherTracker,2013-02-06 02:38:00,
2013-02-05 21:39:00,43.8,33.2,29.98,West,271,0.0,0.0,66,0.00,,,0.00,WeatherTracker,2013-02-06 02:39:00,
2013-02-05 21:40:00,43.8,33.2,29.98,West,271,0.0,0.0,66,0.00,,,0.00,WeatherTracker,2013-02-06 02:40:00,
2013-02-05 21:42:00,43.6,33.4,29.98,West,271,0.0,0.0,67,0.00,,,0.00,WeatherTracker,2013-02-06 02:42:00,
2013-02-05 21:44:00,43.0,33.2,29.98,West,271,0.0,0.0,68,0.00,,,0.00,WeatherTracker,2013-02-06 02:44:00,
2013-02-05 21:45:00,42.9,33.4,29.98,West,271,0.0,0.0,69,0.00,,,0.00,WeatherTracker,2013-02-06 02:45:00,
2013-02-05 21:46:00,42.6,33.2,29.98,West,271,1.0,0.0,69,0.00,,,0.00,WeatherTracker,2013-02-06 02:46:00,
2013-02-05 21:47:00,42.1,33.4,29.98,West,271,1.0,0.0,71,0.00,,,0.00,WeatherTracker,2013-02-06 02:47:00,
2013-02-05 21:50:00,41.5,33.2,29.98,West,271,0.0,0.0,72,0.00,,,0.00,WeatherTracker,2013-02-06 02:50:00,
2013-02-05 21:51:00,41.3,33.0,29.98,West,271,0.0,0.0,72,0.00,,,0.00,WeatherTracker,2013-02-06 02:51:00,
2013-02-05 21:53:00,41.0,33.0,29.98,West,271,0.0,0.0,73,0.00,,,0.00,WeatherTracker,2013-02-06 02:53:00,
2013-02-05 21:55:00,40.9,33.3,29.98,West,271,1.0,0.0,74,0.00,,,0.00,WeatherTracker,2013-02-06 02:55:00,
2013-02-05 21:57:00,40.9,33.3,29.98,West,271,1.0,0.0,74,0.00,,,0.00,WeatherTracker,2013-02-06 02:57:00,
2013-02-05 21:59:00,40.8,33.5,29.98,West,271,1.0,0.0,75,0.00,,,0.00,WeatherTracker,2013-02-06 02:59:00,
2013-02-05 22:01:00,40.5,33.2,29.98,West,271,1.0,0.0,75,0.00,,,0.00,WeatherTracker,2013-02-06 03:01:00,
2013-02-05 22:02:00,40.5,33.2,29.98,West,271,1.0,0.0,75,0.00,,,0.00,WeatherTracker,2013-02-06 03:02:00,
2013-02-05 22:04:00,40.0,32.7,29.99,West,271,2.0,0.0,75,0.00,,,0.00,WeatherTracker,2013-02-06 03:04:00,
2013-02-05 22:07:00,39.4,32.5,29.98,West,271,1.0,0.0,76,0.00,,,0.00,WeatherTracker,2013-02-06 03:07:00,
2013-02-05 22:10:00,39.2,32.9,29.99,West,271,1.0,0.0,78,0.00,,,0.00,WeatherTracker,2013-02-06 03:10:00,
2013-02-05 22:12:00,39.6,33.3,29.99,West,271,1.0,0.0,78,0.00,,,0.00,WeatherTracker,2013-02-06 03:12:00,
2013-02-05 22:13:00,39.7,33.4,29.99,West,271,1.0,0.0,78,0.00,,,0.00,WeatherTracker,2013-02-06 03:13:00,
2013-02-05 22:15:00,39.7,33.1,29.99,West,271,1.0,0.0,77,0.00,,,0.00,WeatherTracker,2013-02-06 03:15:00,
2013-02-05 22:17:00,39.6,33.0,29.99,West,271,0.0,0.0,77,0.00,,,0.00,WeatherTracker,2013-02-06 03:17:00,
2013-02-05 22:18:00,39.6,33.0,29.99,West,271,0.0,0.0,77,0.00,,,0.00,WeatherTracker,2013-02-06 03:18:00,
2013-02-05 22:19:00,39.5,32.9,29.99,West,271,0.0,0.0,77,0.00,,,0.00,WeatherTracker,2013-02-06 03:19:00,
2013-02-05 22:20:00,39.5,32.9,29.98,West,271,0.0,0.0,77,0.00,,,0.00,WeatherTracker,2013-02-06 03:20:00,
2013-02-05 22:22:00,39.5,32.9,29.99,West,271,0.0,0.0,77,0.00,,,0.00,WeatherTracker,2013-02-06 03:22:00,
2013-02-05 22:23:00,39.4,32.8,29.99,West,271,0.0,0.0,77,0.00,,,0.00,WeatherTracker,2013-02-06 03:23:00,
2013-02-05 22:25:00,39.4,32.8,29.99,West,271,0.0,0.0,77,0.00,,,0.00,WeatherTracker,2013-02-06 03:25:00,
2013-02-05 22:26:00,39.4,32.8,29.99,West,271,0.0,0.0,77,0.00,,,0.00,WeatherTracker,2013-02-06 03:26:00,
2013-02-05 22:28:00,39.3,32.7,29.98,West,271,0.0,0.0,77,0.00,,,0.00,WeatherTracker,2013-02-06 03:28:00,
2013-02-05 22:30:00,39.1,32.5,29.99,West,271,0.0,0.0,77,0.00,,,0.00,WeatherTracker,2013-02-06 03:30:00,
2013-02-05 22:31:00,39.0,32.4,29.99,West,271,0.0,0.0,77,0.00,,,0.00,WeatherTracker,2013-02-06 03:31:00,
2013-02-05 22:33:00,38.6,32.3,29.99,West,271,0.0,0.0,78,0.00,,,0.00,WeatherTracker,2013-02-06 03:33:00,
2013-02-05 22:34:00,38.5,32.2,29.99,West,271,0.0,0.0,78,0.00,,,0.00,WeatherTracker,2013-02-06 03:34:00,
2013-02-05 22:36:00,38.3,32.4,29.98,West,271,0.0,0.0,79,0.00,,,0.00,WeatherTracker,2013-02-06 03:36:00,
2013-02-05 22:39:00,38.1,32.5,29.99,West,271,0.0,0.0,80,0.00,,,0.00,WeatherTracker,2013-02-06 03:39:00,
2013-02-05 22:40:00,38.1,32.5,29.99,West,271,0.0,0.0,80,0.00,,,0.00,WeatherTracker,2013-02-06 03:40:00,
2013-02-05 22:41:00,38.1,32.5,29.99,West,271,0.0,0.0,80,0.00,,,0.00,WeatherTracker,2013-02-06 03:41:00,
2013-02-05 22:44:00,38.0,32.4,29.99,West,271,0.0,0.0,80,0.00,,,0.00,WeatherTracker,2013-02-06 03:44:00,
2013-02-05 22:45:00,38.0,32.4,29.99,West,271,0.0,0.0,80,0.00,,,0.00,WeatherTracker,2013-02-06 03:45:00,
2013-02-05 22:46:00,38.0,32.4,29.99,West,271,0.0,0.0,80,0.00,,,0.00,WeatherTracker,2013-02-06 03:46:00,
2013-02-05 22:49:00,38.3,32.4,29.99,West,271,0.0,0.0,79,0.00,,,0.00,WeatherTracker,2013-02-06 03:49:00,
2013-02-05 22:51:00,38.2,32.3,29.99,West,271,0.0,0.0,79,0.00,,,0.00,WeatherTracker,2013-02-06 03:51:00,
2013-02-05 22:52:00,38.1,32.2,29.99,West,271,1.0,0.0,79,0.00,,,0.00,WeatherTracker,2013-02-06 03:52:00,
2013-02-05 22:55:00,38.0,32.4,29.99,West,271,0.0,0.0,80,0.00,,,0.00,WeatherTracker,2013-02-06 03:55:00,
2013-02-05 22:56:00,37.9,32.3,29.99,West,271,0.0,0.0,80,0.00,,,0.00,WeatherTracker,2013-02-06 03:56:00,
2013-02-05 22:57:00,37.8,32.2,29.99,West,271,0.0,0.0,80,0.00,,,0.00,WeatherTracker,2013-02-06 03:57:00,
2013-02-05 22:58:00,37.7,32.1,29.99,West,271,0.0,0.0,80,0.00,,,0.00,WeatherTracker,2013-02-06 03:58:00,
2013-02-05 23:00:00,37.7,32.4,29.99,West,271,0.0,0.0,81,0.00,,,0.00,WeatherTracker,2013-02-06 04:00:00,
2013-02-05 23:01:00,37.7,32.4,29.99,West,271,0.0,0.0,81,0.00,,,0.00,WeatherTracker,2013-02-06 04:01:00,
2013-02-05 23:03:00,37.7,32.4,29.99,West,271,0.0,0.0,81,0.00,,,0.00,WeatherTracker,2013-02-06 04:03:00,
2013-02-05 23:05:00,37.7,32.4,29.99,West,271,0.0,0.0,81,0.00,,,0.00,WeatherTracker,2013-02-06 04:05:00,
2013-02-05 23:07:00,37.6,32.3,29.99,West,271,0.0,0.0,81,0.00,,,0.00,WeatherTracker,2013-02-06 04:07:00,
2013-02-05 23:08:00,37.5,32.2,29.99,West,271,0.0,0.0,81,0.00,,,0.00,WeatherTracker,2013-02-06 04:08:00,
2013-02-05 23:10:00,37.5,32.2,29.99,West,271,0.0,0.0,81,0.00,,,0.00,WeatherTracker,2013-02-06 04:10:00,
2013-02-05 23:12:00,37.4,32.1,29.99,West,271,0.0,0.0,81,0.00,,,0.00,WeatherTracker,2013-02-06 04:12:00,
2013-02-05 23:13:00,37.3,32.0,29.99,West,271,0.0,0.0,81,0.00,,,0.00,WeatherTracker,2013-02-06 04:13:00,
2013-02-05 23:14:00,37.2,31.9,29.99,West,271,0.0,0.0,81,0.00,,,0.00,WeatherTracker,2013-02-06 04:14:00,
2013-02-05 23:15:00,37.1,31.8,29.99,West,271,0.0,0.0,81,0.00,,,0.00,WeatherTracker,2013-02-06 04:15:00,
2013-02-05 23:17:00,36.9,31.9,29.98,West,271,0.0,0.0,82,0.00,,,0.00,WeatherTracker,2013-02-06 04:17:00,
2013-02-05 23:18:00,36.8,31.8,29.98,West,271,0.0,0.0,82,0.00,,,0.00,WeatherTracker,2013-02-06 04:18:00,
2013-02-05 23:20:00,36.8,31.8,29.99,West,271,0.0,0.0,82,0.00,,,0.00,WeatherTracker,2013-02-06 04:20:00,
2013-02-05 23:22:00,36.7,31.7,29.98,West,271,0.0,0.0,82,0.00,,,0.00,WeatherTracker,2013-02-06 04:22:00,
2013-02-05 23:24:00,36.7,32.0,29.99,West,271,0.0,0.0,83,0.00,,,0.00,WeatherTracker,2013-02-06 04:24:00,
2013-02-05 23:25:00,36.6,31.9,29.99,West,271,0.0,0.0,83,0.00,,,0.00,WeatherTracker,2013-02-06 04:25:00,
2013-02-05 23:26:00,36.6,31.9,29.99,West,271,0.0,0.0,83,0.00,,,0.00,WeatherTracker,2013-02-06 04:26:00,
2013-02-05 23:27:00,36.5,31.8,29.99,West,271,0.0,0.0,83,0.00,,,0.00,WeatherTracker,2013-02-06 04:27:00,
2013-02-05 23:30:00,36.1,31.4,29.99,West,271,1.0,0.0,83,0.00,,,0.00,WeatherTracker,2013-02-06 04:30:00,
2013-02-05 23:31:00,36.0,31.3,29.99,West,271,0.0,0.0,83,0.00,,,0.00,WeatherTracker,2013-02-06 04:31:00,
2013-02-05 23:32:00,36.0,31.3,29.99,West,271,1.0,0.0,83,0.00,,,0.00,WeatherTracker,2013-02-06 04:32:00,
2013-02-05 23:33:00,35.9,31.2,29.99,West,271,0.0,0.0,83,0.00,,,0.00,WeatherTracker,2013-02-06 04:33:00,
2013-02-05 23:36:00,35.9,31.5,29.99,West,271,0.0,0.0,84,0.00,,,0.00,WeatherTracker,2013-02-06 04:36:00,
2013-02-05 23:37:00,36.0,31.6,29.99,West,271,1.0,0.0,84,0.00,,,0.00,WeatherTracker,2013-02-06 04:37:00,
2013-02-05 23:38:00,36.1,31.7,29.99,West,271,1.0,0.0,84,0.00,,,0.00,WeatherTracker,2013-02-06 04:38:00,
2013-02-05 23:39:00,36.2,31.8,29.99,West,271,0.0,0.0,84,0.00,,,0.00,WeatherTracker,2013-02-06 04:39:00,
2013-02-05 23:41:00,36.2,31.5,29.99,West,271,0.0,0.0,83,0.00,,,0.00,WeatherTracker,2013-02-06 04:41:00,
2013-02-05 23:42:00,36.2,31.5,29.99,West,271,1.0,0.0,83,0.00,,,0.00,WeatherTracker,2013-02-06 04:42:00,
2013-02-05 23:43:00,36.1,31.4,29.99,West,271,1.0,0.0,83,0.00,,,0.00,WeatherTracker,2013-02-06 04:43:00,
2013-02-05 23:45:00,36.0,31.3,29.99,West,271,1.0,0.0,83,0.00,,,0.00,WeatherTracker,2013-02-06 04:45:00,
2013-02-05 23:46:00,35.8,31.2,29.99,West,271,1.0,0.0,83,0.00,,,0.00,WeatherTracker,2013-02-06 04:46:00,
2013-02-05 23:48:00,35.6,31.0,29.99,West,271,1.0,0.0,83,0.00,,,0.00,WeatherTracker,2013-02-06 04:48:00,
2013-02-05 23:49:00,35.4,30.8,29.99,West,271,1.0,0.0,83,0.00,,,0.00,WeatherTracker,2013-02-06 04:49:00,
2013-02-05 23:50:00,35.3,30.7,29.99,West,271,0.0,0.0,83,0.00,,,0.00,WeatherTracker,2013-02-06 04:50:00,
2013-02-05 23:52:00,35.2,30.9,29.99,West,271,0.0,0.0,84,0.00,,,0.00,WeatherTracker,2013-02-06 04:52:00,
2013-02-05 23:53:00,35.2,30.9,30.00,West,271,1.0,0.0,84,0.00,,,0.00,WeatherTracker,2013-02-06 04:53:00,
2013-02-05 23:54:00,35.2,30.9,30.00,West,271,0.0,0.0,84,0.00,,,0.00,WeatherTracker,2013-02-06 04:54:00,
2013-02-05 23:55:00,35.2,30.9,29.99,West,271,0.0,0.0,84,0.00,,,0.00,WeatherTracker,2013-02-06 04:55:00,
2013-02-05 23:57:00,35.2,30.9,29.99,West,271,0.0,0.0,84,0.00,,,0.00,WeatherTracker,2013-02-06 04:57:00,
2013-02-05 23:59:00,35.2,30.9,29.99,West,271,1.0,0.0,84,0.00,,,0.00,WeatherTracker,2013-02-06 04:59:00,